Wetterdaten: aktuell Montag, 17.06.2019 19:34
Datum Zeit Temp. I. Temp. 2m Temp. 5cm Feuchte I. Feuchte 2m Luftdruck Regen Wind Richtung Richtung Taupunkt Windchill Windben
17.06.2019 19:34 24,8 C 20,9 C 20,5 C 58 % 60 % 1021,8 hPa 0,0 l/m 5,6 km/h (1 Bft) O-SO 112 12,8 C 20,9 C 9,1 km/h (2 Bft)
17.06.2019 19:32 24,8 C 20,9 C 20,6 C 58 % 60 % 1022,0 hPa 0,0 l/m 5,3 km/h (1 Bft) O-NO 67 12,8 C 20,9 C 9,3 km/h (2 Bft)
17.06.2019 19:30 24,8 C 20,9 C 20,7 C 58 % 60 % 1022,0 hPa 0,0 l/m 5,3 km/h (1 Bft) O 90 12,8 C 20,9 C 3,7 km/h (1 Bft)
17.06.2019 19:28 24,8 C 21,0 C 20,7 C 58 % 60 % 1022,0 hPa 0,0 l/m 5,8 km/h (2 Bft) S-SO 157 12,9 C 21,0 C 6,4 km/h (2 Bft)
17.06.2019 19:26 24,8 C 21,0 C 20,7 C 58 % 60 % 1022,0 hPa 0,0 l/m 5,8 km/h (2 Bft) O-SO 112 12,9 C 21,0 C 9,5 km/h (2 Bft)
17.06.2019 19:24 24,8 C 21,0 C 20,8 C 58 % 59 % 1022,0 hPa 0,0 l/m 5,8 km/h (2 Bft) SO 135 12,7 C 21,0 C 11,4 km/h (2 Bft)
17.06.2019 19:22 24,8 C 21,1 C 20,8 C 58 % 59 % 1022,0 hPa 0,0 l/m 5,5 km/h (1 Bft) O 90 12,8 C 21,1 C 7,9 km/h (2 Bft)
17.06.2019 19:20 24,8 C 21,1 C 20,9 C 58 % 59 % 1022,0 hPa 0,0 l/m 6,0 km/h (2 Bft) O-SO 112 12,8 C 21,1 C 7,5 km/h (2 Bft)
17.06.2019 19:18 24,8 C 21,1 C 20,9 C 58 % 59 % 1022,0 hPa 0,0 l/m 6,8 km/h (2 Bft) O-NO 67 12,8 C 21,1 C 6,8 km/h (2 Bft)
17.06.2019 19:16 24,8 C 21,1 C 21,0 C 58 % 59 % 1022,0 hPa 0,0 l/m 6,3 km/h (2 Bft) S-SO 157 12,8 C 21,1 C 6,8 km/h (2 Bft)
17.06.2019 19:14 24,9 C 21,1 C 21,2 C 58 % 59 % 1022,0 hPa 0,0 l/m 6,1 km/h (2 Bft) O-SO 112 12,8 C 21,1 C 6,6 km/h (2 Bft)
17.06.2019 19:12 24,8 C 21,2 C 21,2 C 58 % 59 % 1022,1 hPa 0,0 l/m 6,0 km/h (2 Bft) O-NO 67 12,9 C 21,2 C 8,9 km/h (2 Bft)
17.06.2019 19:10 24,9 C 21,3 C 21,4 C 58 % 59 % 1022,1 hPa 0,0 l/m 6,0 km/h (2 Bft) O-SO 112 13,0 C 21,3 C 9,3 km/h (2 Bft)
17.06.2019 19:08 24,9 C 21,4 C 21,8 C 58 % 60 % 1022,1 hPa 0,0 l/m 5,8 km/h (2 Bft) O-SO 112 13,3 C 21,4 C 20,5 km/h (4 Bft)
17.06.2019 19:06 24,9 C 21,5 C 21,9 C 58 % 60 % 1022,1 hPa 0,0 l/m 5,0 km/h (1 Bft) SO 135 13,4 C 21,5 C 6,4 km/h (2 Bft)
17.06.2019 19:04 24,9 C 21,5 C 22,1 C 58 % 60 % 1022,1 hPa 0,0 l/m 5,5 km/h (1 Bft) O-SO 112 13,4 C 21,5 C 4,6 km/h (1 Bft)
17.06.2019 19:02 24,9 C 21,6 C 22,2 C 58 % 59 % 1022,1 hPa 0,0 l/m 6,3 km/h (2 Bft) SO 135 13,2 C 21,6 C 4,6 km/h (1 Bft)
17.06.2019 19:00 25,0 C 21,6 C 22,2 C 58 % 58 % 1022,1 hPa 0,0 l/m 6,4 km/h (2 Bft) S-SO 157 13,0 C 21,6 C 15,3 km/h (3 Bft)
17.06.2019 18:58 24,9 C 21,7 C 22,4 C 58 % 59 % 1022,1 hPa 0,0 l/m 6,1 km/h (2 Bft) O-SO 112 13,3 C 21,7 C 10,0 km/h (2 Bft)
17.06.2019 18:56 24,9 C 21,8 C 22,5 C 58 % 58 % 1022,1 hPa 0,0 l/m 6,3 km/h (2 Bft) O-NO 67 13,2 C 21,8 C 7,1 km/h (2 Bft)
17.06.2019 18:54 24,9 C 21,8 C 22,7 C 58 % 57 % 1022,1 hPa 0,0 l/m 6,1 km/h (2 Bft) O-SO 112 12,9 C 21,8 C 8,3 km/h (2 Bft)
17.06.2019 18:52 24,9 C 22,0 C 23,2 C 58 % 57 % 1021,9 hPa 0,0 l/m 5,8 km/h (2 Bft) O-NO 67 13,1 C 22,0 C 12,9 km/h (3 Bft)
17.06.2019 18:50 25,0 C 22,1 C 23,4 C 58 % 58 % 1021,9 hPa 0,0 l/m 5,1 km/h (1 Bft) O-SO 112 13,4 C 22,1 C 9,3 km/h (2 Bft)
17.06.2019 18:48 24,9 C 22,1 C 23,8 C 58 % 58 % 1021,9 hPa 0,0 l/m 4,5 km/h (1 Bft) O-SO 112 13,4 C 22,1 C 6,6 km/h (2 Bft)
17.06.2019 18:46 25,0 C 22,2 C 24,0 C 58 % 57 % 1021,9 hPa 0,0 l/m 4,5 km/h (1 Bft) NO 45 13,3 C 22,2 C 6,0 km/h (2 Bft)
17.06.2019 18:44 25,0 C 22,2 C 24,1 C 58 % 59 % 1021,9 hPa 0,0 l/m 4,7 km/h (1 Bft) SO 135 13,8 C 22,2 C 7,3 km/h (2 Bft)
17.06.2019 18:42 25,0 C 22,3 C 24,1 C 58 % 59 % 1021,9 hPa 0,0 l/m 4,3 km/h (1 Bft) O-SO 112 13,9 C 22,3 C 5,0 km/h (1 Bft)
17.06.2019 18:40 25,0 C 22,4 C 24,2 C 58 % 60 % 1021,9 hPa 0,0 l/m 4,7 km/h (1 Bft) SO 135 14,2 C 22,4 C 7,3 km/h (2 Bft)
17.06.2019 18:38 25,0 C 22,3 C 24,3 C 58 % 58 % 1021,9 hPa 0,0 l/m 4,7 km/h (1 Bft) W 270 13,6 C 22,3 C 4,8 km/h (1 Bft)
17.06.2019 18:36 25,0 C 22,4 C 24,5 C 58 % 58 % 1021,9 hPa 0,0 l/m 4,8 km/h (1 Bft) O-SO 112 13,7 C 22,4 C 9,7 km/h (2 Bft)
17.06.2019 18:34 25,0 C 22,4 C 24,7 C 58 % 59 % 1021,9 hPa 0,0 l/m 4,7 km/h (1 Bft) O 90 14,0 C 22,4 C 6,8 km/h (2 Bft)
17.06.2019 18:32 25,0 C 22,5 C 25,0 C 58 % 57 % 1021,9 hPa 0,0 l/m 4,8 km/h (1 Bft) O-SO 112 13,5 C 22,5 C 4,2 km/h (1 Bft)
17.06.2019 18:30 25,0 C 22,6 C 25,0 C 58 % 57 % 1021,9 hPa 0,0 l/m 4,5 km/h (1 Bft) SO 135 13,6 C 22,6 C 9,7 km/h (2 Bft)
17.06.2019 18:28 25,0 C 22,5 C 25,0 C 58 % 59 % 1021,9 hPa 0,0 l/m 4,8 km/h (1 Bft) O-SO 112 14,1 C 22,5 C 4,6 km/h (1 Bft)
17.06.2019 18:26 25,0 C 22,6 C 25,2 C 58 % 56 % 1021,9 hPa 0,0 l/m 5,0 km/h (1 Bft) O-SO 112 13,4 C 22,6 C 5,6 km/h (1 Bft)
17.06.2019 18:24 25,0 C 22,6 C 25,3 C 58 % 56 % 1021,9 hPa 0,0 l/m 4,8 km/h (1 Bft) O-SO 112 13,4 C 22,6 C 5,2 km/h (1 Bft)
17.06.2019 18:22 25,0 C 22,7 C 25,6 C 58 % 57 % 1021,9 hPa 0,0 l/m 4,8 km/h (1 Bft) O-NO 67 13,7 C 22,7 C 6,8 km/h (2 Bft)
17.06.2019 18:20 25,0 C 22,9 C 26,0 C 58 % 56 % 1021,9 hPa 0,0 l/m 5,3 km/h (1 Bft) SO 135 13,6 C 22,9 C 8,1 km/h (2 Bft)
17.06.2019 18:18 25,0 C 22,9 C 26,3 C 58 % 55 % 1021,9 hPa 0,0 l/m 6,0 km/h (2 Bft) O 90 13,4 C 22,9 C 6,8 km/h (2 Bft)
17.06.2019 18:16 25,0 C 23,0 C 26,5 C 58 % 54 % 1021,9 hPa 0,0 l/m 5,6 km/h (1 Bft) O-SO 112 13,2 C 23,0 C 6,0 km/h (2 Bft)
17.06.2019 18:14 25,1 C 23,0 C 26,5 C 58 % 56 % 1021,9 hPa 0,0 l/m 5,6 km/h (1 Bft) SO 135 13,7 C 23,0 C 9,1 km/h (2 Bft)
17.06.2019 18:12 25,1 C 22,8 C 26,4 C 58 % 54 % 1022,1 hPa 0,0 l/m 5,8 km/h (2 Bft) O-SO 112 13,0 C 22,8 C 12,4 km/h (3 Bft)
17.06.2019 18:10 25,0 C 22,9 C 26,4 C 58 % 54 % 1022,1 hPa 0,0 l/m 5,5 km/h (1 Bft) O-NO 67 13,1 C 22,9 C 10,2 km/h (2 Bft)
17.06.2019 18:08 25,0 C 23,0 C 26,3 C 58 % 56 % 1022,1 hPa 0,0 l/m 5,8 km/h (2 Bft) O-NO 67 13,7 C 23,0 C 17,8 km/h (3 Bft)
17.06.2019 18:06 25,0 C 23,0 C 26,1 C 58 % 54 % 1022,1 hPa 0,0 l/m 5,1 km/h (1 Bft) O 90 13,2 C 23,0 C 7,0 km/h (2 Bft)
17.06.2019 18:04 25,0 C 22,9 C 26,2 C 58 % 57 % 1022,1 hPa 0,0 l/m 5,6 km/h (1 Bft) SO 135 13,9 C 22,9 C 9,3 km/h (2 Bft)
17.06.2019 18:02 25,1 C 22,9 C 26,2 C 58 % 54 % 1022,1 hPa 0,0 l/m 5,5 km/h (1 Bft) SO 135 13,1 C 22,9 C 10,4 km/h (2 Bft)
17.06.2019 18:00 25,1 C 22,8 C 26,1 C 58 % 55 % 1022,1 hPa 0,0 l/m 5,5 km/h (1 Bft) O-NO 67 13,3 C 22,8 C 7,7 km/h (2 Bft)
17.06.2019 17:58 25,1 C 22,9 C 26,3 C 58 % 55 % 1022,1 hPa 0,0 l/m 5,5 km/h (1 Bft) O 90 13,4 C 22,9 C 11,6 km/h (2 Bft)
17.06.2019 17:56 25,1 C 22,9 C 26,3 C 58 % 55 % 1022,1 hPa 0,0 l/m 5,3 km/h (1 Bft) O-SO 112 13,4 C 22,9 C 9,3 km/h (2 Bft)
17.06.2019 17:54 25,1 C 22,9 C 26,5 C 58 % 55 % 1022,1 hPa 0,0 l/m 5,3 km/h (1 Bft) O-SO 112 13,4 C 22,9 C 9,7 km/h (2 Bft)
17.06.2019 17:52 25,1 C 22,9 C 26,5 C 58 % 56 % 1022,1 hPa 0,0 l/m 5,8 km/h (2 Bft) SO 135 13,6 C 22,9 C 8,9 km/h (2 Bft)
17.06.2019 17:50 25,1 C 22,8 C 26,5 C 58 % 57 % 1022,1 hPa 0,0 l/m 5,0 km/h (1 Bft) NO 45 13,8 C 22,8 C 7,9 km/h (2 Bft)
17.06.2019 17:48 25,1 C 22,8 C 26,6 C 58 % 56 % 1022,1 hPa 0,0 l/m 4,8 km/h (1 Bft) O-NO 67 13,6 C 22,8 C 9,3 km/h (2 Bft)
17.06.2019 17:46 25,1 C 22,9 C 26,5 C 58 % 54 % 1022,1 hPa 0,0 l/m 4,0 km/h (1 Bft) O-SO 112 13,1 C 22,9 C 8,1 km/h (2 Bft)
17.06.2019 17:44 25,1 C 22,8 C 26,6 C 58 % 54 % 1022,1 hPa 0,0 l/m 4,0 km/h (1 Bft) O-NO 67 13,0 C 22,8 C 8,7 km/h (2 Bft)
17.06.2019 17:42 25,1 C 23,0 C 26,8 C 58 % 56 % 1022,1 hPa 0,0 l/m 3,2 km/h (1 Bft) NO 45 13,7 C 23,0 C 7,7 km/h (2 Bft)
17.06.2019 17:40 25,2 C 22,9 C 27,0 C 58 % 56 % 1022,1 hPa 0,0 l/m 3,2 km/h (1 Bft) NO 45 13,6 C 22,9 C 4,6 km/h (1 Bft)
17.06.2019 17:38 25,1 C 22,8 C 27,0 C 58 % 58 % 1022,1 hPa 0,0 l/m 3,5 km/h (1 Bft) O-NO 67 14,1 C 22,8 C 4,1 km/h (1 Bft)
17.06.2019 17:36 25,2 C 22,7 C 26,9 C 58 % 56 % 1022,1 hPa 0,0 l/m 3,7 km/h (1 Bft) O 90 13,5 C 22,7 C 5,0 km/h (1 Bft)
17.06.2019 17:34 25,2 C 22,5 C 26,5 C 58 % 57 % 1022,1 hPa 0,0 l/m 3,5 km/h (1 Bft) O-NO 67 13,5 C 22,5 C 6,6 km/h (2 Bft)
17.06.2019 17:32 25,2 C 22,4 C 26,1 C 58 % 60 % 1022,4 hPa 0,0 l/m 4,0 km/h (1 Bft) SO 135 14,2 C 22,4 C 3,3 km/h (1 Bft)
17.06.2019 17:30 25,1 C 22,5 C 26,1 C 58 % 59 % 1022,4 hPa 0,0 l/m 4,8 km/h (1 Bft) O-NO 67 14,1 C 22,5 C 7,0 km/h (2 Bft)
17.06.2019 17:28 25,2 C 22,5 C 26,4 C 58 % 60 % 1022,4 hPa 0,0 l/m 5,0 km/h (1 Bft) O-NO 67 14,3 C 22,5 C 9,7 km/h (2 Bft)
17.06.2019 17:26 25,2 C 22,5 C 27,0 C 58 % 56 % 1022,4 hPa 0,0 l/m 5,5 km/h (1 Bft) O-NO 67 13,3 C 22,5 C 7,7 km/h (2 Bft)
17.06.2019 17:24 25,2 C 22,5 C 27,1 C 58 % 58 % 1022,4 hPa 0,0 l/m 6,0 km/h (2 Bft) O-NO 67 13,8 C 22,5 C 1,9 km/h (1 Bft)
17.06.2019 17:22 25,1 C 22,6 C 27,1 C 58 % 54 % 1022,4 hPa 0,0 l/m 5,8 km/h (2 Bft) O-SO 112 12,8 C 22,6 C 8,7 km/h (2 Bft)
17.06.2019 17:20 25,2 C 22,6 C 27,0 C 58 % 56 % 1022,4 hPa 0,0 l/m 5,8 km/h (2 Bft) O 90 13,4 C 22,6 C 9,1 km/h (2 Bft)
17.06.2019 17:18 25,2 C 22,5 C 26,8 C 58 % 57 % 1022,4 hPa 0,0 l/m 6,0 km/h (2 Bft) S-SO 157 13,5 C 22,5 C 7,3 km/h (2 Bft)
17.06.2019 17:16 25,2 C 22,5 C 26,6 C 58 % 58 % 1022,4 hPa 0,0 l/m 5,6 km/h (1 Bft) SO 135 13,8 C 22,5 C 7,0 km/h (2 Bft)
17.06.2019 17:14 25,2 C 22,5 C 26,4 C 58 % 59 % 1022,4 hPa 0,0 l/m 5,0 km/h (1 Bft) O 90 14,1 C 22,5 C 6,4 km/h (2 Bft)
17.06.2019 17:12 25,2 C 22,3 C 26,2 C 58 % 57 % 1022,8 hPa 0,0 l/m 6,1 km/h (2 Bft) S-SO 157 13,4 C 22,3 C 9,1 km/h (2 Bft)
17.06.2019 17:10 25,2 C 22,4 C 26,9 C 58 % 57 % 1022,8 hPa 0,0 l/m 6,1 km/h (2 Bft) O-NO 67 13,5 C 22,4 C 7,9 km/h (2 Bft)
17.06.2019 17:08 25,2 C 22,6 C 27,2 C 58 % 57 % 1022,8 hPa 0,0 l/m 5,5 km/h (1 Bft) O-SO 112 13,6 C 22,6 C 6,0 km/h (2 Bft)
17.06.2019 17:06 25,2 C 22,4 C 26,9 C 58 % 60 % 1022,8 hPa 0,0 l/m 5,6 km/h (1 Bft) S-SO 157 14,2 C 22,4 C 3,7 km/h (1 Bft)
17.06.2019 17:04 25,2 C 22,3 C 26,7 C 58 % 59 % 1022,8 hPa 0,0 l/m 5,8 km/h (2 Bft) O-SO 112 13,9 C 22,3 C 6,6 km/h (2 Bft)
17.06.2019 17:02 25,2 C 22,5 C 27,4 C 58 % 58 % 1022,8 hPa 0,0 l/m 5,8 km/h (2 Bft) O 90 13,8 C 22,5 C 12,9 km/h (3 Bft)
17.06.2019 17:00 25,2 C 22,7 C 28,0 C 57 % 57 % 1022,8 hPa 0,0 l/m 5,1 km/h (1 Bft) O-NO 67 13,7 C 22,7 C 11,4 km/h (2 Bft)
17.06.2019 16:58 25,2 C 22,8 C 28,2 C 58 % 55 % 1022,8 hPa 0,0 l/m 5,1 km/h (1 Bft) O-NO 67 13,3 C 22,8 C 5,4 km/h (1 Bft)
17.06.2019 16:56 25,2 C 22,8 C 28,4 C 58 % 57 % 1022,8 hPa 0,0 l/m 5,8 km/h (2 Bft) O-SO 112 13,8 C 22,8 C 11,4 km/h (2 Bft)
17.06.2019 16:54 25,2 C 22,9 C 28,5 C 57 % 54 % 1022,8 hPa 0,0 l/m 6,1 km/h (2 Bft) O-SO 112 13,1 C 22,9 C 7,9 km/h (2 Bft)
17.06.2019 16:52 25,2 C 22,9 C 28,8 C 57 % 57 % 1022,9 hPa 0,0 l/m 6,0 km/h (2 Bft) O-NO 67 13,9 C 22,9 C 6,6 km/h (2 Bft)
17.06.2019 16:50 25,3 C 22,9 C 29,2 C 57 % 53 % 1022,9 hPa 0,0 l/m 6,8 km/h (2 Bft) O-NO 67 12,8 C 22,9 C 6,8 km/h (2 Bft)
17.06.2019 16:48 25,3 C 22,9 C 29,7 C 57 % 56 % 1022,9 hPa 0,0 l/m 6,9 km/h (2 Bft) O-SO 112 13,6 C 22,9 C 7,1 km/h (2 Bft)
17.06.2019 16:46 25,3 C 23,2 C 30,8 C 57 % 54 % 1022,9 hPa 0,0 l/m 6,9 km/h (2 Bft) O-NO 67 13,4 C 23,2 C 9,8 km/h (2 Bft)
17.06.2019 16:44 25,2 C 23,4 C 30,9 C 57 % 54 % 1022,9 hPa 0,0 l/m 7,1 km/h (2 Bft) O-NO 67 13,6 C 23,4 C 11,8 km/h (2 Bft)
17.06.2019 16:42 25,3 C 23,1 C 31,0 C 57 % 55 % 1022,9 hPa 0,0 l/m 7,2 km/h (2 Bft) O-SO 112 13,6 C 23,1 C 4,6 km/h (1 Bft)
17.06.2019 16:40 25,2 C 23,1 C 31,1 C 57 % 56 % 1022,9 hPa 0,0 l/m 7,7 km/h (2 Bft) O 90 13,8 C 23,1 C 9,8 km/h (2 Bft)
17.06.2019 16:38 25,3 C 22,9 C 31,4 C 57 % 53 % 1022,9 hPa 0,0 l/m 7,7 km/h (2 Bft) SO 135 12,8 C 22,9 C 11,4 km/h (2 Bft)
17.06.2019 16:36 25,2 C 23,0 C 31,2 C 57 % 54 % 1022,9 hPa 0,0 l/m 7,6 km/h (2 Bft) O-SO 112 13,2 C 23,0 C 12,4 km/h (3 Bft)
17.06.2019 16:34 25,2 C 23,0 C 30,6 C 57 % 55 % 1022,9 hPa 0,0 l/m 7,6 km/h (2 Bft) O-NO 67 13,5 C 23,0 C 12,0 km/h (2 Bft)
17.06.2019 16:32 25,2 C 22,9 C 30,3 C 57 % 53 % 1022,9 hPa 0,0 l/m 6,9 km/h (2 Bft) NO 45 12,8 C 22,9 C 7,3 km/h (2 Bft)
17.06.2019 16:30 25,2 C 22,9 C 30,1 C 57 % 54 % 1022,9 hPa 0,0 l/m 7,1 km/h (2 Bft) SO 135 13,1 C 22,9 C 13,7 km/h (3 Bft)
17.06.2019 16:28 25,2 C 23,1 C 30,4 C 57 % 53 % 1022,9 hPa 0,0 l/m 7,2 km/h (2 Bft) O 90 13,0 C 23,1 C 14,3 km/h (3 Bft)
17.06.2019 16:26 25,2 C 23,0 C 30,2 C 57 % 59 % 1022,9 hPa 0,0 l/m 7,1 km/h (2 Bft) S-SO 157 14,5 C 23,0 C 16,8 km/h (3 Bft)
17.06.2019 16:24 25,2 C 22,7 C 29,5 C 57 % 54 % 1022,9 hPa 0,0 l/m 7,1 km/h (2 Bft) S 180 12,9 C 22,7 C 8,1 km/h (2 Bft)
17.06.2019 16:22 25,2 C 22,7 C 29,0 C 57 % 55 % 1022,9 hPa 0,0 l/m 7,6 km/h (2 Bft) SO 135 13,2 C 22,7 C 10,4 km/h (2 Bft)
17.06.2019 16:20 25,2 C 22,7 C 29,3 C 57 % 54 % 1022,9 hPa 0,0 l/m 7,6 km/h (2 Bft) O-SO 112 12,9 C 22,7 C 13,3 km/h (3 Bft)
17.06.2019 16:18 25,4 C 22,9 C 29,3 C 57 % 55 % 1022,9 hPa 0,0 l/m 7,6 km/h (2 Bft) O-SO 112 13,4 C 22,9 C 9,5 km/h (2 Bft)
17.06.2019 16:16 25,4 C 22,9 C 30,3 C 57 % 55 % 1022,9 hPa 0,0 l/m 7,1 km/h (2 Bft) NO 45 13,4 C 22,9 C 9,1 km/h (2 Bft)
17.06.2019 16:14 25,4 C 22,9 C 31,4 C 57 % 54 % 1022,9 hPa 0,0 l/m 6,8 km/h (2 Bft) O-SO 112 13,1 C 22,9 C 9,5 km/h (2 Bft)
17.06.2019 16:12 25,4 C 23,0 C 31,5 C 57 % 53 % 1023,2 hPa 0,0 l/m 6,1 km/h (2 Bft) O-SO 112 12,9 C 23,0 C 10,0 km/h (2 Bft)
17.06.2019 16:10 25,4 C 23,0 C 31,6 C 57 % 54 % 1023,2 hPa 0,0 l/m 6,1 km/h (2 Bft) O 90 13,2 C 23,0 C 9,1 km/h (2 Bft)
17.06.2019 16:08 25,4 C 23,1 C 31,7 C 57 % 53 % 1023,2 hPa 0,0 l/m 6,3 km/h (2 Bft) O-SO 112 13,0 C 23,1 C 12,9 km/h (3 Bft)
17.06.2019 16:06 25,4 C 23,0 C 31,3 C 57 % 56 % 1023,2 hPa 0,0 l/m 6,1 km/h (2 Bft) SO 135 13,7 C 23,0 C 4,1 km/h (1 Bft)
17.06.2019 16:04 25,4 C 22,7 C 30,1 C 57 % 54 % 1023,2 hPa 0,0 l/m 6,3 km/h (2 Bft) O-NO 67 12,9 C 22,7 C 5,2 km/h (1 Bft)
17.06.2019 16:02 25,4 C 22,5 C 29,0 C 57 % 57 % 1023,2 hPa 0,0 l/m 7,1 km/h (2 Bft) NO 45 13,5 C 22,5 C 7,7 km/h (2 Bft)
17.06.2019 16:00 25,4 C 22,5 C 28,7 C 57 % 56 % 1023,2 hPa 0,0 l/m 7,1 km/h (2 Bft) SO 135 13,3 C 22,5 C 12,4 km/h (3 Bft)
17.06.2019 15:58 25,4 C 22,7 C 29,4 C 57 % 54 % 1023,2 hPa 0,0 l/m 6,8 km/h (2 Bft) O-SO 112 12,9 C 22,7 C 12,0 km/h (2 Bft)
17.06.2019 15:56 25,4 C 22,9 C 30,6 C 57 % 55 % 1023,2 hPa 0,0 l/m 6,3 km/h (2 Bft) SO 135 13,4 C 22,9 C 9,3 km/h (2 Bft)
17.06.2019 15:54 25,4 C 22,8 C 31,4 C 57 % 54 % 1023,2 hPa 0,0 l/m 6,1 km/h (2 Bft) S-SO 157 13,0 C 22,8 C 6,8 km/h (2 Bft)
17.06.2019 15:52 25,4 C 22,8 C 31,0 C 57 % 53 % 1023,3 hPa 0,0 l/m 6,0 km/h (2 Bft) O 90 12,7 C 22,8 C 10,4 km/h (2 Bft)
17.06.2019 15:50 25,4 C 22,9 C 30,5 C 57 % 54 % 1023,3 hPa 0,0 l/m 6,0 km/h (2 Bft) O-NO 67 13,1 C 22,9 C 9,1 km/h (2 Bft)
17.06.2019 15:48 25,4 C 23,1 C 31,1 C 57 % 53 % 1023,3 hPa 0,0 l/m 6,3 km/h (2 Bft) O-NO 67 13,0 C 23,1 C 10,0 km/h (2 Bft)
17.06.2019 15:46 25,4 C 23,2 C 32,1 C 57 % 53 % 1023,3 hPa 0,0 l/m 6,3 km/h (2 Bft) O-SO 112 13,1 C 23,2 C 8,7 km/h (2 Bft)
17.06.2019 15:44 25,4 C 23,2 C 31,2 C 57 % 54 % 1023,3 hPa 0,0 l/m 6,0 km/h (2 Bft) O 90 13,4 C 23,2 C 5,8 km/h (2 Bft)
17.06.2019 15:42 25,5 C 22,8 C 30,8 C 57 % 53 % 1023,3 hPa 0,0 l/m 6,4 km/h (2 Bft) O-NO 67 12,7 C 22,8 C 9,5 km/h (2 Bft)
17.06.2019 15:40 25,4 C 22,6 C 29,9 C 57 % 55 % 1023,3 hPa 0,0 l/m 6,4 km/h (2 Bft) O-NO 67 13,1 C 22,6 C 14,1 km/h (3 Bft)
17.06.2019 15:38 25,4 C 22,5 C 29,3 C 57 % 57 % 1023,3 hPa 0,0 l/m 6,3 km/h (2 Bft) O-SO 112 13,5 C 22,5 C 6,0 km/h (2 Bft)
17.06.2019 15:36 25,5 C 22,3 C 28,6 C 57 % 56 % 1023,3 hPa 0,0 l/m 6,9 km/h (2 Bft) S-SO 157 13,1 C 22,3 C 8,3 km/h (2 Bft)
17.06.2019 15:34 25,5 C 22,2 C 28,8 C 57 % 57 % 1023,3 hPa 0,0 l/m 7,2 km/h (2 Bft) O-NO 67 13,3 C 22,2 C 7,3 km/h (2 Bft)
17.06.2019 15:32 25,5 C 22,2 C 28,8 C 57 % 56 % 1023,8 hPa 0,0 l/m 6,9 km/h (2 Bft) O-NO 67 13,0 C 22,2 C 11,0 km/h (2 Bft)
17.06.2019 15:30 25,5 C 22,3 C 28,5 C 57 % 58 % 1023,8 hPa 0,0 l/m 6,8 km/h (2 Bft) O 90 13,6 C 22,3 C 7,7 km/h (2 Bft)
17.06.2019 15:28 25,5 C 22,4 C 30,1 C 57 % 56 % 1023,8 hPa 0,0 l/m 6,3 km/h (2 Bft) SO 135 13,2 C 22,4 C 9,5 km/h (2 Bft)
17.06.2019 15:26 25,6 C 22,6 C 31,1 C 57 % 53 % 1023,8 hPa 0,0 l/m 5,6 km/h (1 Bft) O 90 12,5 C 22,6 C 12,7 km/h (3 Bft)
17.06.2019 15:24 25,6 C 23,0 C 32,4 C 57 % 51 % 1023,8 hPa 0,0 l/m 5,5 km/h (1 Bft) NO 45 12,3 C 23,0 C 9,3 km/h (2 Bft)
17.06.2019 15:22 25,6 C 23,2 C 33,4 C 57 % 54 % 1023,8 hPa 0,0 l/m 5,8 km/h (2 Bft) S-SO 157 13,4 C 23,2 C 4,4 km/h (1 Bft)
17.06.2019 15:20 25,6 C 23,4 C 33,5 C 57 % 52 % 1023,8 hPa 0,0 l/m 6,4 km/h (2 Bft) SO 135 13,0 C 23,4 C 9,1 km/h (2 Bft)
17.06.2019 15:18 25,6 C 23,1 C 33,2 C 57 % 53 % 1023,8 hPa 0,0 l/m 8,4 km/h (2 Bft) SO 135 13,0 C 23,1 C 2,1 km/h (1 Bft)
17.06.2019 15:16 25,6 C 22,8 C 31,7 C 57 % 53 % 1023,8 hPa 0,0 l/m 11,6 km/h (2 Bft) O 90 12,7 C 22,8 C 40,2 km/h (6 Bft)
17.06.2019 15:14 25,6 C 22,5 C 30,3 C 57 % 55 % 1023,8 hPa 0,0 l/m 11,6 km/h (2 Bft) O-SO 112 13,0 C 22,5 C 6,2 km/h (2 Bft)
17.06.2019 15:12 25,6 C 22,8 C 31,3 C 57 % 53 % 1023,7 hPa 0,0 l/m 11,1 km/h (2 Bft) O-SO 112 12,7 C 22,8 C 12,4 km/h (3 Bft)
17.06.2019 15:10 25,6 C 23,2 C 33,9 C 57 % 53 % 1023,7 hPa 0,0 l/m 11,3 km/h (2 Bft) O-NO 67 13,1 C 23,2 C 12,7 km/h (3 Bft)
17.06.2019 15:08 25,6 C 23,2 C 34,7 C 57 % 51 % 1023,7 hPa 0,0 l/m 10,3 km/h (2 Bft) NO 45 12,5 C 23,2 C 29,2 km/h (5 Bft)
17.06.2019 15:06 25,6 C 23,2 C 34,5 C 57 % 50 % 1023,7 hPa 0,0 l/m 7,7 km/h (2 Bft) O 90 12,2 C 23,2 C 33,8 km/h (5 Bft)
17.06.2019 15:04 25,6 C 23,4 C 33,7 C 57 % 52 % 1023,7 hPa 0,0 l/m 6,6 km/h (2 Bft) SO 135 13,0 C 23,4 C 21,8 km/h (4 Bft)
17.06.2019 15:02 25,6 C 23,2 C 34,1 C 57 % 52 % 1023,7 hPa 0,0 l/m 5,6 km/h (1 Bft) O-SO 112 12,8 C 23,2 C 6,6 km/h (2 Bft)
17.06.2019 15:00 25,6 C 23,5 C 35,1 C 57 % 51 % 1023,7 hPa 0,0 l/m 5,0 km/h (1 Bft) O-SO 112 12,8 C 23,5 C 11,6 km/h (2 Bft)
17.06.2019 14:58 25,6 C 23,4 C 34,1 C 57 % 51 % 1023,7 hPa 0,0 l/m 5,1 km/h (1 Bft) S 180 12,7 C 23,4 C 9,3 km/h (2 Bft)
17.06.2019 14:56 25,6 C 23,2 C 34,2 C 57 % 51 % 1023,7 hPa 0,0 l/m 5,1 km/h (1 Bft) O 90 12,5 C 23,2 C 10,2 km/h (2 Bft)
17.06.2019 14:54 25,6 C 23,4 C 33,9 C 57 % 50 % 1023,7 hPa 0,0 l/m 5,0 km/h (1 Bft) SO 135 12,4 C 23,4 C 9,5 km/h (2 Bft)
17.06.2019 14:52 25,6 C 23,1 C 33,9 C 57 % 52 % 1023,9 hPa 0,0 l/m 6,0 km/h (2 Bft) O-NO 67 12,7 C 23,1 C 2,9 km/h (1 Bft)
17.06.2019 14:50 25,6 C 23,1 C 33,4 C 57 % 52 % 1023,9 hPa 0,0 l/m 8,2 km/h (2 Bft) O-SO 112 12,7 C 23,1 C 3,7 km/h (1 Bft)
17.06.2019 14:48 25,7 C 23,1 C 33,3 C 57 % 50 % 1023,9 hPa 0,0 l/m 8,4 km/h (2 Bft) N-NO 22 12,1 C 23,1 C 11,8 km/h (2 Bft)
17.06.2019 14:46 25,6 C 23,2 C 33,0 C 57 % 50 % 1023,9 hPa 0,0 l/m 8,5 km/h (2 Bft) NO 45 12,2 C 23,2 C 7,3 km/h (2 Bft)
17.06.2019 14:44 25,7 C 23,1 C 33,0 C 57 % 53 % 1023,9 hPa 0,0 l/m 8,0 km/h (2 Bft) NO 45 13,0 C 23,1 C 10,4 km/h (2 Bft)
17.06.2019 14:42 25,7 C 23,0 C 33,0 C 57 % 51 % 1023,9 hPa 0,0 l/m 7,4 km/h (2 Bft) O-NO 67 12,3 C 23,0 C 21,0 km/h (4 Bft)
17.06.2019 14:40 25,7 C 22,9 C 32,5 C 57 % 53 % 1023,9 hPa 0,0 l/m 5,5 km/h (1 Bft) O 90 12,8 C 22,9 C 20,5 km/h (4 Bft)
17.06.2019 14:38 25,6 C 22,7 C 32,3 C 57 % 53 % 1023,9 hPa 0,0 l/m 4,2 km/h (1 Bft) NO 45 12,6 C 22,7 C 7,3 km/h (2 Bft)
17.06.2019 14:36 25,7 C 22,8 C 31,3 C 57 % 52 % 1023,9 hPa 0,0 l/m 4,3 km/h (1 Bft) O-NO 67 12,4 C 22,8 C 6,4 km/h (2 Bft)
17.06.2019 14:34 25,7 C 22,7 C 30,9 C 57 % 51 % 1023,9 hPa 0,0 l/m 5,3 km/h (1 Bft) O 90 12,0 C 22,7 C 8,3 km/h (2 Bft)
17.06.2019 14:32 25,7 C 23,0 C 32,0 C 57 % 50 % 1024,2 hPa 0,0 l/m 6,3 km/h (2 Bft) NO 45 12,0 C 23,0 C 7,0 km/h (2 Bft)
17.06.2019 14:30 25,7 C 22,9 C 31,7 C 57 % 53 % 1024,2 hPa 0,0 l/m 7,9 km/h (2 Bft) O-SO 112 12,8 C 22,9 C 6,6 km/h (2 Bft)
17.06.2019 14:28 25,7 C 22,6 C 30,9 C 57 % 53 % 1024,2 hPa 0,0 l/m 9,7 km/h (2 Bft) O-NO 67 12,5 C 22,6 C 10,0 km/h (2 Bft)
17.06.2019 14:26 25,8 C 22,6 C 31,3 C 57 % 50 % 1024,2 hPa 0,0 l/m 9,3 km/h (2 Bft) O-NO 67 11,6 C 22,6 C 13,9 km/h (3 Bft)
17.06.2019 14:24 25,8 C 23,1 C 33,4 C 57 % 53 % 1024,2 hPa 0,0 l/m 9,5 km/h (2 Bft) O-NO 67 13,0 C 23,1 C 13,5 km/h (3 Bft)
17.06.2019 14:22 25,8 C 23,4 C 37,1 C 57 % 49 % 1024,2 hPa 0,0 l/m 10,6 km/h (2 Bft) O-NO 67 12,1 C 23,4 C 6,0 km/h (2 Bft)
17.06.2019 14:20 25,8 C 23,7 C 36,9 C 57 % 50 % 1024,2 hPa 0,0 l/m 10,8 km/h (2 Bft) O-NO 67 12,6 C 23,7 C 32,4 km/h (5 Bft)
17.06.2019 14:18 25,8 C 23,9 C 36,3 C 57 % 50 % 1024,2 hPa 0,0 l/m 9,7 km/h (2 Bft) NO 45 12,8 C 23,9 C 17,4 km/h (3 Bft)
17.06.2019 14:16 25,8 C 23,6 C 35,9 C 57 % 56 % 1024,2 hPa 0,0 l/m 11,6 km/h (2 Bft) O 90 14,3 C 23,6 C 2,5 km/h (1 Bft)
17.06.2019 14:14 25,8 C 23,2 C 35,5 C 57 % 50 % 1024,2 hPa 0,0 l/m 13,4 km/h (3 Bft) O-SO 112 12,2 C 23,2 C 7,7 km/h (2 Bft)
17.06.2019 14:12 25,8 C 23,4 C 36,1 C 57 % 47 % 1024,2 hPa 0,0 l/m 13,2 km/h (3 Bft) S-SO 157 11,4 C 23,4 C 18,2 km/h (3 Bft)
17.06.2019 14:10 25,8 C 23,5 C 36,1 C 57 % 51 % 1024,2 hPa 0,0 l/m 11,1 km/h (2 Bft) O-SO 112 12,8 C 23,5 C 20,7 km/h (4 Bft)
17.06.2019 14:08 25,8 C 23,4 C 35,7 C 57 % 52 % 1024,2 hPa 0,0 l/m 10,0 km/h (2 Bft) O-SO 112 13,0 C 23,4 C 12,6 km/h (3 Bft)
17.06.2019 14:06 25,8 C 22,9 C 35,6 C 57 % 49 % 1024,2 hPa 0,0 l/m 10,3 km/h (2 Bft) O 90 11,6 C 22,9 C 23,0 km/h (4 Bft)
17.06.2019 14:04 25,8 C 22,9 C 35,0 C 57 % 49 % 1024,2 hPa 0,0 l/m 9,2 km/h (2 Bft) O-SO 112 11,6 C 22,9 C 28,4 km/h (4 Bft)
17.06.2019 14:02 25,8 C 23,2 C 35,6 C 57 % 50 % 1024,2 hPa 0,0 l/m 9,3 km/h (2 Bft) O-SO 112 12,2 C 23,2 C 9,1 km/h (2 Bft)
17.06.2019 14:00 25,8 C 23,6 C 35,6 C 57 % 50 % 1024,2 hPa 0,0 l/m 10,1 km/h (2 Bft) O-NO 67 12,6 C 23,6 C 16,8 km/h (3 Bft)
17.06.2019 13:58 25,8 C 23,7 C 37,3 C 57 % 53 % 1024,2 hPa 0,0 l/m 10,5 km/h (2 Bft) O-SO 112 13,5 C 23,7 C 6,4 km/h (2 Bft)
17.06.2019 13:56 25,9 C 23,4 C 36,5 C 57 % 53 % 1024,2 hPa 0,0 l/m 10,9 km/h (2 Bft) O-SO 112 13,3 C 23,4 C 32,6 km/h (5 Bft)
17.06.2019 13:54 25,9 C 23,1 C 36,1 C 57 % 51 % 1024,2 hPa 0,0 l/m 9,7 km/h (2 Bft) O-SO 112 12,4 C 23,1 C 11,8 km/h (2 Bft)
17.06.2019 13:52 25,9 C 22,9 C 35,6 C 57 % 49 % 1024,4 hPa 0,0 l/m 8,7 km/h (2 Bft) SO 135 11,6 C 22,9 C 18,0 km/h (3 Bft)
17.06.2019 13:50 25,9 C 22,7 C 34,7 C 57 % 50 % 1024,4 hPa 0,0 l/m 8,7 km/h (2 Bft) S-SO 157 11,7 C 22,7 C 14,1 km/h (3 Bft)
17.06.2019 13:48 25,9 C 22,8 C 35,1 C 57 % 50 % 1024,4 hPa 0,0 l/m 10,3 km/h (2 Bft) O 90 11,8 C 22,8 C 13,5 km/h (3 Bft)
17.06.2019 13:46 25,9 C 23,0 C 35,7 C 57 % 49 % 1024,4 hPa 0,0 l/m 10,6 km/h (2 Bft) O-SO 112 11,7 C 23,0 C 13,1 km/h (3 Bft)
17.06.2019 13:44 26,0 C 23,1 C 36,4 C 57 % 48 % 1024,4 hPa 0,0 l/m 11,9 km/h (2 Bft) O-SO 112 11,5 C 23,1 C 9,8 km/h (2 Bft)
17.06.2019 13:42 25,9 C 23,2 C 37,6 C 57 % 49 % 1024,4 hPa 0,0 l/m 11,9 km/h (2 Bft) SO 135 11,9 C 23,2 C 8,9 km/h (2 Bft)
17.06.2019 13:40 25,9 C 23,2 C 38,3 C 57 % 50 % 1024,4 hPa 0,0 l/m 11,9 km/h (2 Bft) SO 135 12,2 C 23,2 C 24,5 km/h (4 Bft)
17.06.2019 13:38 26,0 C 23,2 C 38,1 C 57 % 50 % 1024,4 hPa 0,0 l/m 10,6 km/h (2 Bft) O-SO 112 12,2 C 23,2 C 22,4 km/h (4 Bft)
17.06.2019 13:36 25,9 C 23,4 C 37,9 C 57 % 49 % 1024,4 hPa 0,0 l/m 9,2 km/h (2 Bft) O-SO 112 12,1 C 23,4 C 31,5 km/h (5 Bft)
17.06.2019 13:34 26,0 C 23,6 C 38,3 C 57 % 49 % 1024,4 hPa 0,0 l/m 8,2 km/h (2 Bft) O-SO 112 12,2 C 23,6 C 15,4 km/h (3 Bft)
17.06.2019 13:32 26,0 C 23,4 C 37,9 C 57 % 51 % 1024,8 hPa 0,0 l/m 10,0 km/h (2 Bft) NO 45 12,7 C 23,4 C 16,4 km/h (3 Bft)
17.06.2019 13:30 26,0 C 23,2 C 37,9 C 57 % 51 % 1024,8 hPa 0,0 l/m 9,7 km/h (2 Bft) NW 315 12,5 C 23,2 C 9,1 km/h (2 Bft)
17.06.2019 13:28 26,0 C 23,4 C 37,9 C 57 % 50 % 1024,8 hPa 0,0 l/m 8,7 km/h (2 Bft) S-SO 157 12,4 C 23,4 C 7,7 km/h (2 Bft)
17.06.2019 13:26 26,0 C 22,9 C 38,0 C 57 % 52 % 1024,8 hPa 0,0 l/m 7,7 km/h (2 Bft) O-SO 112 12,5 C 22,9 C 10,4 km/h (2 Bft)
17.06.2019 13:24 26,0 C 22,9 C 37,6 C 57 % 52 % 1024,8 hPa 0,0 l/m 7,1 km/h (2 Bft) O 90 12,5 C 22,9 C 21,2 km/h (4 Bft)
17.06.2019 13:22 26,0 C 23,0 C 36,5 C 57 % 49 % 1024,8 hPa 0,0 l/m 5,1 km/h (1 Bft) S-SO 157 11,7 C 23,0 C 21,6 km/h (4 Bft)
17.06.2019 13:20 26,0 C 22,9 C 35,2 C 57 % 50 % 1024,8 hPa 0,0 l/m 5,5 km/h (1 Bft) SO 135 11,9 C 22,9 C 14,5 km/h (3 Bft)
17.06.2019 13:18 26,0 C 22,4 C 34,2 C 57 % 52 % 1024,8 hPa 0,0 l/m 6,0 km/h (2 Bft) S 180 12,1 C 22,4 C 9,7 km/h (2 Bft)
17.06.2019 13:16 26,1 C 22,6 C 35,3 C 57 % 47 % 1024,8 hPa 0,0 l/m 7,2 km/h (2 Bft) O-NO 67 10,7 C 22,6 C 5,0 km/h (1 Bft)
17.06.2019 13:14 26,0 C 23,6 C 37,4 C 57 % 49 % 1024,8 hPa 0,0 l/m 8,0 km/h (2 Bft) O-SO 112 12,2 C 23,6 C 6,2 km/h (2 Bft)
17.06.2019 13:12 26,0 C 23,5 C 38,0 C 57 % 48 % 1024,8 hPa 0,0 l/m 9,0 km/h (2 Bft) S 180 11,8 C 23,5 C 13,9 km/h (3 Bft)
17.06.2019 13:10 26,0 C 23,2 C 40,2 C 57 % 49 % 1024,8 hPa 0,0 l/m 11,4 km/h (2 Bft) SO 135 11,9 C 23,2 C 16,6 km/h (3 Bft)
17.06.2019 13:08 26,0 C 23,4 C 39,6 C 57 % 51 % 1024,8 hPa 0,0 l/m 10,3 km/h (2 Bft) O 90 12,7 C 23,4 C 18,2 km/h (3 Bft)
17.06.2019 13:06 26,0 C 23,4 C 39,0 C 57 % 48 % 1024,8 hPa 0,0 l/m 10,3 km/h (2 Bft) SO 135 11,8 C 23,4 C 26,5 km/h (4 Bft)
17.06.2019 13:04 26,0 C 23,0 C 37,9 C 57 % 51 % 1024,8 hPa 0,0 l/m 10,0 km/h (2 Bft) O 90 12,3 C 23,0 C 19,1 km/h (3 Bft)
17.06.2019 13:02 26,0 C 22,9 C 37,9 C 57 % 51 % 1024,8 hPa 0,0 l/m 8,7 km/h (2 Bft) NO 45 12,2 C 22,9 C 18,5 km/h (3 Bft)
17.06.2019 13:00 26,1 C 22,9 C 38,2 C 57 % 52 % 1024,8 hPa 0,0 l/m 7,1 km/h (2 Bft) O-SO 112 12,5 C 22,9 C 24,1 km/h (4 Bft)
17.06.2019 12:58 26,0 C 22,8 C 36,2 C 57 % 50 % 1024,8 hPa 0,0 l/m 6,9 km/h (2 Bft) S-SO 157 11,8 C 22,8 C 7,7 km/h (2 Bft)
17.06.2019 12:56 26,1 C 22,7 C 35,6 C 57 % 50 % 1024,8 hPa 0,0 l/m 6,9 km/h (2 Bft) SO 135 11,7 C 22,7 C 20,9 km/h (4 Bft)
17.06.2019 12:54 26,0 C 22,6 C 35,1 C 57 % 51 % 1024,8 hPa 0,0 l/m 6,4 km/h (2 Bft) NO 45 11,9 C 22,6 C 6,8 km/h (2 Bft)
17.06.2019 12:52 26,0 C 22,5 C 35,5 C 57 % 50 % 1024,8 hPa 0,0 l/m 6,3 km/h (2 Bft) S 180 11,5 C 22,5 C 7,5 km/h (2 Bft)
17.06.2019 12:50 26,1 C 22,5 C 36,2 C 57 % 52 % 1024,8 hPa 0,0 l/m 6,9 km/h (2 Bft) SO 135 12,1 C 22,5 C 10,2 km/h (2 Bft)
17.06.2019 12:48 26,1 C 22,5 C 36,2 C 57 % 52 % 1024,8 hPa 0,0 l/m 6,9 km/h (2 Bft) S-SO 157 12,1 C 22,5 C 15,3 km/h (3 Bft)
17.06.2019 12:46 26,0 C 22,9 C 37,6 C 57 % 49 % 1024,8 hPa 0,0 l/m 6,3 km/h (2 Bft) O-SO 112 11,6 C 22,9 C 11,4 km/h (2 Bft)
17.06.2019 12:44 26,0 C 22,7 C 38,0 C 57 % 51 % 1024,8 hPa 0,0 l/m 6,1 km/h (2 Bft) O-NO 67 12,0 C 22,7 C 8,1 km/h (2 Bft)
17.06.2019 12:42 26,0 C 22,4 C 37,7 C 57 % 51 % 1024,8 hPa 0,0 l/m 6,6 km/h (2 Bft) O-NO 67 11,8 C 22,4 C 8,1 km/h (2 Bft)
17.06.2019 12:40 26,1 C 22,5 C 37,1 C 57 % 53 % 1024,8 hPa 0,0 l/m 6,4 km/h (2 Bft) NO 45 12,4 C 22,5 C 13,1 km/h (3 Bft)
17.06.2019 12:38 26,1 C 22,8 C 37,5 C 57 % 50 % 1024,8 hPa 0,0 l/m 5,5 km/h (1 Bft) NO 45 11,8 C 22,8 C 11,0 km/h (2 Bft)
17.06.2019 12:36 26,0 C 22,6 C 37,2 C 57 % 50 % 1024,8 hPa 0,0 l/m 5,5 km/h (1 Bft) O-SO 112 11,6 C 22,6 C 7,0 km/h (2 Bft)
17.06.2019 12:34 26,0 C 22,2 C 36,6 C 57 % 50 % 1024,8 hPa 0,0 l/m 5,5 km/h (1 Bft) SO 135 11,3 C 22,2 C 7,3 km/h (2 Bft)
17.06.2019 12:32 26,1 C 22,1 C 35,9 C 57 % 51 % 1025,0 hPa 0,0 l/m 5,5 km/h (1 Bft) S-SO 157 11,5 C 22,1 C 8,1 km/h (2 Bft)
17.06.2019 12:30 26,1 C 21,8 C 35,2 C 57 % 51 % 1025,0 hPa 0,0 l/m 5,5 km/h (1 Bft) O-NO 67 11,2 C 21,8 C 5,0 km/h (1 Bft)
17.06.2019 12:28 26,1 C 21,5 C 33,3 C 57 % 53 % 1025,0 hPa 0,0 l/m 5,8 km/h (2 Bft) O-NO 67 11,5 C 21,5 C 6,2 km/h (2 Bft)
17.06.2019 12:26 26,1 C 21,6 C 32,1 C 57 % 52 % 1025,0 hPa 0,0 l/m 6,3 km/h (2 Bft) SO 135 11,3 C 21,6 C 12,7 km/h (3 Bft)
17.06.2019 12:24 26,1 C 21,7 C 32,8 C 57 % 55 % 1025,0 hPa 0,0 l/m 6,0 km/h (2 Bft) N 360 12,3 C 21,7 C 8,7 km/h (2 Bft)
17.06.2019 12:22 26,1 C 21,8 C 34,7 C 57 % 51 % 1025,0 hPa 0,0 l/m 5,8 km/h (2 Bft) O-SO 112 11,2 C 21,8 C 9,8 km/h (2 Bft)
17.06.2019 12:20 26,1 C 22,2 C 37,3 C 57 % 53 % 1025,0 hPa 0,0 l/m 5,8 km/h (2 Bft) O-SO 112 12,2 C 22,2 C 7,3 km/h (2 Bft)
17.06.2019 12:18 26,1 C 22,4 C 37,3 C 57 % 49 % 1025,0 hPa 0,0 l/m 5,8 km/h (2 Bft) S-SO 157 11,2 C 22,4 C 9,5 km/h (2 Bft)
17.06.2019 12:16 26,1 C 22,6 C 38,4 C 57 % 50 % 1025,0 hPa 0,0 l/m 5,5 km/h (1 Bft) O-SO 112 11,6 C 22,6 C 5,6 km/h (1 Bft)
17.06.2019 12:14 26,1 C 22,4 C 34,6 C 57 % 50 % 1025,0 hPa 0,0 l/m 5,6 km/h (1 Bft) O-SO 112 11,5 C 22,4 C 9,8 km/h (2 Bft)
17.06.2019 12:12 26,1 C 21,8 C 34,6 C 57 % 52 % 1025,0 hPa 0,0 l/m 5,5 km/h (1 Bft) S 180 11,5 C 21,8 C 9,1 km/h (2 Bft)
17.06.2019 12:10 26,1 C 21,8 C 34,6 C 57 % 52 % 1025,0 hPa 0,0 l/m 5,5 km/h (1 Bft) S 180 11,5 C 21,8 C 9,1 km/h (2 Bft)
17.06.2019 12:08 26,1 C 21,8 C 34,6 C 57 % 52 % 1025,0 hPa 0,0 l/m 5,5 km/h (1 Bft) S 180 11,5 C 21,8 C 9,1 km/h (2 Bft)
17.06.2019 12:06 26,1 C 21,8 C 34,6 C 57 % 52 % 1025,0 hPa 0,0 l/m 5,5 km/h (1 Bft) S 180 11,5 C 21,8 C 9,1 km/h (2 Bft)
17.06.2019 12:04 26,1 C 21,8 C 34,6 C 57 % 52 % 1025,0 hPa 0,0 l/m 5,5 km/h (1 Bft) S 180 11,5 C 21,8 C 9,1 km/h (2 Bft)
17.06.2019 12:02 26,2 C 21,9 C 34,6 C 57 % 52 % 1025,0 hPa 0,0 l/m 5,5 km/h (1 Bft) NO 45 11,6 C 21,9 C 9,1 km/h (2 Bft)
17.06.2019 12:00 26,2 C 21,5 C 36,5 C 57 % 51 % 1025,0 hPa 0,0 l/m 6,0 km/h (2 Bft) O-NO 67 10,9 C 21,5 C 0,0 km/h (0 Bft)
17.06.2019 11:58 26,2 C 21,3 C 36,6 C 57 % 52 % 1025,0 hPa 0,0 l/m 7,6 km/h (2 Bft) NO 45 11,0 C 21,3 C 7,3 km/h (2 Bft)
17.06.2019 11:56 26,2 C 21,6 C 37,1 C 57 % 51 % 1025,0 hPa 0,0 l/m 8,4 km/h (2 Bft) O-NO 67 11,0 C 21,6 C 12,9 km/h (3 Bft)
17.06.2019 11:54 26,1 C 21,9 C 37,5 C 57 % 53 % 1025,0 hPa 0,0 l/m 7,9 km/h (2 Bft) NO 45 11,9 C 21,9 C 7,0 km/h (2 Bft)
17.06.2019 11:52 26,1 C 22,2 C 38,2 C 57 % 51 % 1024,6 hPa 0,0 l/m 7,7 km/h (2 Bft) SO 135 11,6 C 22,2 C 12,4 km/h (3 Bft)
17.06.2019 11:50 26,1 C 22,3 C 38,5 C 57 % 53 % 1024,6 hPa 0,0 l/m 7,7 km/h (2 Bft) SO 135 12,2 C 22,3 C 9,3 km/h (2 Bft)
17.06.2019 11:48 26,1 C 21,6 C 37,0 C 57 % 52 % 1024,6 hPa 0,0 l/m 8,0 km/h (2 Bft) O-NO 67 11,3 C 21,6 C 16,0 km/h (3 Bft)
17.06.2019 11:46 26,1 C 21,2 C 35,1 C 57 % 47 % 1024,6 hPa 0,0 l/m 7,2 km/h (2 Bft) N 360 9,4 C 21,2 C 11,0 km/h (2 Bft)
17.06.2019 11:44 26,1 C 21,1 C 31,3 C 57 % 50 % 1024,6 hPa 0,0 l/m 6,9 km/h (2 Bft) NO 45 10,3 C 21,1 C 7,0 km/h (2 Bft)
17.06.2019 11:42 26,1 C 21,2 C 30,8 C 57 % 48 % 1024,6 hPa 0,0 l/m 6,9 km/h (2 Bft) O-NO 67 9,7 C 21,2 C 10,2 km/h (2 Bft)
17.06.2019 11:40 26,1 C 21,7 C 36,2 C 57 % 47 % 1024,6 hPa 0,0 l/m 6,8 km/h (2 Bft) NO 45 9,9 C 21,7 C 10,6 km/h (2 Bft)
17.06.2019 11:38 26,1 C 21,6 C 36,4 C 57 % 48 % 1024,6 hPa 0,0 l/m 6,6 km/h (2 Bft) NO 45 10,1 C 21,6 C 12,0 km/h (2 Bft)
17.06.2019 11:36 26,0 C 21,7 C 36,0 C 57 % 47 % 1024,6 hPa 0,0 l/m 6,8 km/h (2 Bft) O-NO 67 9,9 C 21,7 C 9,8 km/h (2 Bft)
17.06.2019 11:34 26,0 C 21,8 C 35,1 C 57 % 51 % 1024,6 hPa 0,0 l/m 6,9 km/h (2 Bft) N 360 11,2 C 21,8 C 12,4 km/h (3 Bft)
17.06.2019 11:32 26,1 C 21,6 C 36,3 C 57 % 48 % 1025,2 hPa 0,0 l/m 7,4 km/h (2 Bft) O-SO 112 10,1 C 21,6 C 5,6 km/h (1 Bft)
17.06.2019 11:30 26,0 C 21,5 C 36,3 C 57 % 47 % 1025,2 hPa 0,0 l/m 7,9 km/h (2 Bft) O-SO 112 9,7 C 21,5 C 11,4 km/h (2 Bft)
17.06.2019 11:28 26,1 C 21,4 C 35,9 C 57 % 51 % 1025,2 hPa 0,0 l/m 8,0 km/h (2 Bft) O-NO 67 10,8 C 21,4 C 14,7 km/h (3 Bft)
17.06.2019 11:26 26,1 C 21,4 C 35,2 C 57 % 50 % 1025,2 hPa 0,0 l/m 7,9 km/h (2 Bft) NO 45 10,5 C 21,4 C 12,6 km/h (3 Bft)
17.06.2019 11:24 26,0 C 21,3 C 35,2 C 57 % 49 % 1025,2 hPa 0,0 l/m 8,7 km/h (2 Bft) O-SO 112 10,1 C 21,3 C 9,8 km/h (2 Bft)
17.06.2019 11:22 26,0 C 21,5 C 35,4 C 57 % 49 % 1025,2 hPa 0,0 l/m 8,5 km/h (2 Bft) NO 45 10,3 C 21,5 C 13,1 km/h (3 Bft)
17.06.2019 11:20 26,0 C 21,5 C 36,2 C 57 % 50 % 1025,2 hPa 0,0 l/m 8,2 km/h (2 Bft) O 90 10,6 C 21,5 C 12,4 km/h (3 Bft)
17.06.2019 11:18 26,0 C 21,8 C 37,7 C 57 % 48 % 1025,2 hPa 0,0 l/m 7,9 km/h (2 Bft) N-NO 22 10,3 C 21,8 C 18,0 km/h (3 Bft)
17.06.2019 11:16 26,0 C 21,5 C 37,1 C 58 % 52 % 1025,2 hPa 0,0 l/m 7,7 km/h (2 Bft) NO 45 11,2 C 21,5 C 20,7 km/h (4 Bft)
17.06.2019 11:14 26,0 C 21,8 C 38,0 C 58 % 49 % 1025,2 hPa 0,0 l/m 8,0 km/h (2 Bft) NO 45 10,6 C 21,8 C 20,7 km/h (4 Bft)
17.06.2019 11:12 26,0 C 21,7 C 37,9 C 58 % 50 % 1024,6 hPa 0,0 l/m 7,9 km/h (2 Bft) NO 45 10,8 C 21,7 C 11,6 km/h (2 Bft)
17.06.2019 11:10 26,0 C 21,6 C 36,8 C 58 % 51 % 1024,6 hPa 0,0 l/m 7,7 km/h (2 Bft) O-NO 67 11,0 C 21,6 C 10,0 km/h (2 Bft)
17.06.2019 11:08 26,0 C 21,2 C 36,2 C 58 % 53 % 1024,6 hPa 0,0 l/m 6,8 km/h (2 Bft) N-NO 22 11,2 C 21,2 C 9,8 km/h (2 Bft)
17.06.2019 11:06 25,9 C 21,2 C 35,2 C 58 % 49 % 1024,6 hPa 0,0 l/m 6,8 km/h (2 Bft) O-NO 67 10,1 C 21,2 C 11,2 km/h (2 Bft)
17.06.2019 11:04 25,9 C 21,1 C 35,1 C 58 % 50 % 1024,6 hPa 0,0 l/m 5,5 km/h (1 Bft) O 90 10,3 C 21,1 C 12,7 km/h (3 Bft)
17.06.2019 11:02 25,9 C 21,4 C 35,4 C 58 % 51 % 1024,6 hPa 0,0 l/m 4,5 km/h (1 Bft) O 90 10,8 C 21,4 C 15,1 km/h (3 Bft)
17.06.2019 11:00 25,9 C 21,1 C 34,6 C 58 % 52 % 1024,6 hPa 0,0 l/m 4,2 km/h (1 Bft) O-NO 67 10,9 C 21,1 C 4,8 km/h (1 Bft)
17.06.2019 10:58 25,8 C 20,9 C 34,0 C 58 % 57 % 1024,6 hPa 0,0 l/m 4,3 km/h (1 Bft) W-SW 247 12,1 C 20,9 C 2,3 km/h (1 Bft)
17.06.2019 10:56 25,8 C 21,1 C 33,0 C 58 % 56 % 1024,6 hPa 0,0 l/m 4,8 km/h (1 Bft) NO 45 12,0 C 21,1 C 9,5 km/h (2 Bft)
17.06.2019 10:54 25,8 C 20,9 C 31,4 C 58 % 61 % 1024,6 hPa 0,0 l/m 5,0 km/h (1 Bft) NO 45 13,1 C 20,9 C 6,4 km/h (2 Bft)
17.06.2019 10:52 25,8 C 20,8 C 32,4 C 58 % 57 % 1025,2 hPa 0,0 l/m 6,6 km/h (2 Bft) O-NO 67 12,0 C 20,8 C 7,3 km/h (2 Bft)
17.06.2019 10:50 25,8 C 20,2 C 29,5 C 58 % 59 % 1025,2 hPa 0,0 l/m 6,6 km/h (2 Bft) O-SO 112 11,9 C 20,2 C 4,8 km/h (1 Bft)
17.06.2019 10:48 25,8 C 20,0 C 26,7 C 58 % 60 % 1025,2 hPa 0,0 l/m 6,4 km/h (2 Bft) O-NO 67 12,0 C 20,0 C 6,2 km/h (2 Bft)
17.06.2019 10:46 25,8 C 20,2 C 26,8 C 58 % 60 % 1025,2 hPa 0,0 l/m 6,6 km/h (2 Bft) NO 45 12,2 C 20,2 C 4,2 km/h (1 Bft)
17.06.2019 10:44 25,8 C 20,7 C 27,5 C 58 % 59 % 1025,2 hPa 0,0 l/m 6,6 km/h (2 Bft) NO 45 12,4 C 20,7 C 11,6 km/h (2 Bft)
17.06.2019 10:42 25,8 C 20,7 C 27,3 C 58 % 58 % 1025,2 hPa 0,0 l/m 6,4 km/h (2 Bft) NO 45 12,1 C 20,7 C 15,4 km/h (3 Bft)
17.06.2019 10:40 25,7 C 20,7 C 27,4 C 58 % 53 % 1025,2 hPa 0,0 l/m 6,4 km/h (2 Bft) O-NO 67 10,8 C 20,7 C 4,8 km/h (1 Bft)
17.06.2019 10:38 25,8 C 20,9 C 27,3 C 58 % 55 % 1025,2 hPa 0,0 l/m 7,1 km/h (2 Bft) O-SO 112 11,5 C 20,9 C 0,0 km/h (0 Bft)
17.06.2019 10:36 25,8 C 20,8 C 27,0 C 58 % 55 % 1025,2 hPa 0,0 l/m 7,7 km/h (2 Bft) O 90 11,4 C 20,8 C 17,6 km/h (3 Bft)
17.06.2019 10:34 25,8 C 20,7 C 27,0 C 58 % 58 % 1025,2 hPa 0,0 l/m 7,9 km/h (2 Bft) O-NO 67 12,1 C 20,7 C 7,5 km/h (2 Bft)
17.06.2019 10:32 25,7 C 20,7 C 26,9 C 58 % 58 % 1025,1 hPa 0,0 l/m 7,2 km/h (2 Bft) O-NO 67 12,1 C 20,7 C 11,0 km/h (2 Bft)
17.06.2019 10:30 25,6 C 20,7 C 26,9 C 58 % 58 % 1025,1 hPa 0,0 l/m 6,9 km/h (2 Bft) NO 45 12,1 C 20,7 C 10,2 km/h (2 Bft)
17.06.2019 10:28 25,6 C 20,6 C 26,9 C 58 % 59 % 1025,1 hPa 0,0 l/m 7,1 km/h (2 Bft) NO 45 12,3 C 20,6 C 9,8 km/h (2 Bft)
17.06.2019 10:26 25,6 C 20,5 C 26,8 C 58 % 54 % 1025,1 hPa 0,0 l/m 6,9 km/h (2 Bft) NO 45 10,9 C 20,5 C 7,7 km/h (2 Bft)
17.06.2019 10:24 25,6 C 21,0 C 26,8 C 58 % 56 % 1025,1 hPa 0,0 l/m 6,4 km/h (2 Bft) O-NO 67 11,9 C 21,0 C 5,4 km/h (1 Bft)
17.06.2019 10:22 25,6 C 20,6 C 26,6 C 58 % 57 % 1025,1 hPa 0,0 l/m 6,6 km/h (2 Bft) N-NO 22 11,8 C 20,6 C 4,8 km/h (1 Bft)
17.06.2019 10:20 25,6 C 20,7 C 26,8 C 58 % 57 % 1025,1 hPa 0,0 l/m 6,6 km/h (2 Bft) O 90 11,9 C 20,7 C 7,9 km/h (2 Bft)
17.06.2019 10:18 25,6 C 20,9 C 27,1 C 58 % 56 % 1025,1 hPa 0,0 l/m 6,9 km/h (2 Bft) NO 45 11,8 C 20,9 C 14,7 km/h (3 Bft)
17.06.2019 10:16 25,5 C 20,7 C 27,5 C 58 % 62 % 1025,1 hPa 0,0 l/m 7,1 km/h (2 Bft) NO 45 13,2 C 20,7 C 10,2 km/h (2 Bft)
17.06.2019 10:14 25,5 C 20,3 C 27,1 C 58 % 56 % 1025,1 hPa 0,0 l/m 6,3 km/h (2 Bft) NO 45 11,2 C 20,3 C 8,3 km/h (2 Bft)
17.06.2019 10:12 25,5 C 20,5 C 27,1 C 59 % 58 % 1024,9 hPa 0,0 l/m 6,0 km/h (2 Bft) O-NO 67 11,9 C 20,5 C 8,3 km/h (2 Bft)
17.06.2019 10:10 25,5 C 20,5 C 27,3 C 59 % 59 % 1024,9 hPa 0,0 l/m 6,0 km/h (2 Bft) SO 135 12,2 C 20,5 C 7,0 km/h (2 Bft)
17.06.2019 10:08 25,5 C 20,6 C 27,8 C 59 % 61 % 1024,9 hPa 0,0 l/m 5,8 km/h (2 Bft) O-NO 67 12,8 C 20,6 C 14,3 km/h (3 Bft)
17.06.2019 10:06 25,4 C 20,9 C 28,0 C 59 % 60 % 1024,9 hPa 0,0 l/m 5,8 km/h (2 Bft) NO 45 12,8 C 20,9 C 10,8 km/h (2 Bft)
17.06.2019 10:04 25,4 C 20,4 C 27,8 C 59 % 57 % 1024,9 hPa 0,0 l/m 6,3 km/h (2 Bft) O-SO 112 11,6 C 20,4 C 4,6 km/h (1 Bft)
17.06.2019 10:02 25,4 C 20,3 C 27,0 C 59 % 59 % 1024,9 hPa 0,0 l/m 6,6 km/h (2 Bft) O-NO 67 12,0 C 20,3 C 10,6 km/h (2 Bft)
17.06.2019 10:00 25,4 C 20,2 C 26,9 C 59 % 60 % 1024,9 hPa 0,0 l/m 6,4 km/h (2 Bft) O-NO 67 12,2 C 20,2 C 9,3 km/h (2 Bft)
17.06.2019 09:58 25,2 C 20,1 C 26,8 C 59 % 57 % 1024,9 hPa 0,0 l/m 5,8 km/h (2 Bft) O-NO 67 11,3 C 20,1 C 10,2 km/h (2 Bft)
17.06.2019 09:56 25,2 C 20,2 C 27,9 C 59 % 62 % 1024,9 hPa 0,0 l/m 5,5 km/h (1 Bft) NO 45 12,7 C 20,2 C 10,8 km/h (2 Bft)
17.06.2019 09:54 25,3 C 20,3 C 28,4 C 59 % 62 % 1024,9 hPa 0,0 l/m 5,6 km/h (1 Bft) O-NO 67 12,8 C 20,3 C 13,9 km/h (3 Bft)
17.06.2019 09:52 25,3 C 20,3 C 29,3 C 59 % 58 % 1024,9 hPa 0,0 l/m 5,6 km/h (1 Bft) O-SO 112 11,8 C 20,3 C 7,1 km/h (2 Bft)
17.06.2019 09:50 25,2 C 20,2 C 31,0 C 59 % 61 % 1024,9 hPa 0,0 l/m 6,0 km/h (2 Bft) O-NO 67 12,4 C 20,2 C 4,8 km/h (1 Bft)
17.06.2019 09:48 25,2 C 19,8 C 31,0 C 59 % 59 % 1024,9 hPa 0,0 l/m 6,9 km/h (2 Bft) NO 45 11,6 C 19,8 C 5,0 km/h (1 Bft)
17.06.2019 09:46 25,2 C 19,9 C 31,1 C 59 % 60 % 1024,9 hPa 0,0 l/m 7,1 km/h (2 Bft) O-NO 67 11,9 C 19,9 C 10,6 km/h (2 Bft)
17.06.2019 09:44 25,2 C 19,7 C 31,2 C 59 % 65 % 1024,9 hPa 0,0 l/m 6,0 km/h (2 Bft) N-NO 22 12,9 C 19,7 C 13,5 km/h (3 Bft)
17.06.2019 09:42 25,1 C 19,8 C 31,0 C 59 % 63 % 1024,9 hPa 0,0 l/m 5,1 km/h (1 Bft) N-NO 22 12,5 C 19,8 C 10,4 km/h (2 Bft)
17.06.2019 09:40 25,1 C 19,8 C 30,1 C 59 % 61 % 1024,9 hPa 0,0 l/m 5,1 km/h (1 Bft) NO 45 12,1 C 19,8 C 11,4 km/h (2 Bft)
17.06.2019 09:38 25,1 C 20,2 C 30,1 C 59 % 63 % 1024,9 hPa 0,0 l/m 4,5 km/h (1 Bft) O-NO 67 12,9 C 20,2 C 12,2 km/h (2 Bft)
17.06.2019 09:36 25,0 C 19,9 C 29,7 C 59 % 61 % 1024,9 hPa 0,0 l/m 4,0 km/h (1 Bft) O-NO 67 12,2 C 19,9 C 7,5 km/h (2 Bft)
17.06.2019 09:34 25,0 C 19,6 C 30,1 C 59 % 61 % 1024,9 hPa 0,0 l/m 4,7 km/h (1 Bft) NO 45 11,9 C 19,6 C 2,7 km/h (1 Bft)
17.06.2019 09:32 25,0 C 19,8 C 30,4 C 59 % 63 % 1024,8 hPa 0,0 l/m 4,8 km/h (1 Bft) O-SO 112 12,5 C 19,8 C 6,6 km/h (2 Bft)
17.06.2019 09:30 25,0 C 19,7 C 30,6 C 60 % 63 % 1024,8 hPa 0,0 l/m 4,8 km/h (1 Bft) O-SO 112 12,5 C 19,7 C 9,3 km/h (2 Bft)
17.06.2019 09:28 24,9 C 19,6 C 30,1 C 60 % 62 % 1024,8 hPa 0,0 l/m 4,5 km/h (1 Bft) N-NW 337 12,1 C 19,6 C 5,2 km/h (1 Bft)
17.06.2019 09:26 24,9 C 19,4 C 29,3 C 60 % 64 % 1024,8 hPa 0,0 l/m 4,5 km/h (1 Bft) NO 45 12,4 C 19,4 C 9,3 km/h (2 Bft)
17.06.2019 09:24 24,9 C 19,5 C 29,3 C 60 % 61 % 1024,8 hPa 0,0 l/m 4,7 km/h (1 Bft) NO 45 11,8 C 19,5 C 7,7 km/h (2 Bft)
17.06.2019 09:22 24,9 C 19,8 C 29,1 C 60 % 63 % 1024,8 hPa 0,0 l/m 4,8 km/h (1 Bft) N-NO 22 12,5 C 19,8 C 5,8 km/h (2 Bft)
17.06.2019 09:20 24,9 C 19,9 C 28,7 C 60 % 63 % 1024,8 hPa 0,0 l/m 5,0 km/h (1 Bft) NO 45 12,6 C 19,9 C 5,8 km/h (2 Bft)
17.06.2019 09:18 24,8 C 19,5 C 28,5 C 60 % 63 % 1024,8 hPa 0,0 l/m 5,5 km/h (1 Bft) O 90 12,3 C 19,5 C 3,7 km/h (1 Bft)
17.06.2019 09:16 24,8 C 19,5 C 27,6 C 60 % 67 % 1024,8 hPa 0,0 l/m 5,8 km/h (2 Bft) O 90 13,2 C 19,5 C 17,0 km/h (3 Bft)
17.06.2019 09:14 24,7 C 19,1 C 26,9 C 60 % 68 % 1024,8 hPa 0,0 l/m 6,0 km/h (2 Bft) O 90 13,1 C 19,1 C 8,5 km/h (2 Bft)
17.06.2019 09:12 24,7 C 19,0 C 26,7 C 60 % 65 % 1024,8 hPa 0,0 l/m 6,1 km/h (2 Bft) N-NO 22 12,3 C 19,0 C 8,5 km/h (2 Bft)
17.06.2019 09:10 24,7 C 18,9 C 26,4 C 60 % 69 % 1024,8 hPa 0,0 l/m 6,3 km/h (2 Bft) NO 45 13,1 C 18,9 C 9,3 km/h (2 Bft)
17.06.2019 09:08 24,7 C 18,8 C 26,6 C 60 % 65 % 1024,8 hPa 0,0 l/m 5,8 km/h (2 Bft) N-NW 337 12,1 C 18,8 C 17,0 km/h (3 Bft)
17.06.2019 09:06 24,7 C 19,0 C 26,4 C 60 % 67 % 1024,8 hPa 0,0 l/m 6,1 km/h (2 Bft) NO 45 12,7 C 19,0 C 9,8 km/h (2 Bft)
17.06.2019 09:04 24,6 C 18,8 C 26,2 C 60 % 66 % 1024,8 hPa 0,0 l/m 6,3 km/h (2 Bft) NO 45 12,3 C 18,8 C 9,3 km/h (2 Bft)
17.06.2019 09:02 24,6 C 19,0 C 26,0 C 60 % 65 % 1024,8 hPa 0,0 l/m 6,4 km/h (2 Bft) NO 45 12,3 C 19,0 C 11,2 km/h (2 Bft)
17.06.2019 09:00 24,6 C 19,0 C 25,7 C 60 % 68 % 1024,8 hPa 0,0 l/m 6,4 km/h (2 Bft) NO 45 13,0 C 19,0 C 9,8 km/h (2 Bft)
17.06.2019 08:58 24,6 C 18,7 C 25,1 C 60 % 67 % 1024,8 hPa 0,0 l/m 6,9 km/h (2 Bft) O-NO 67 12,4 C 18,7 C 9,7 km/h (2 Bft)
17.06.2019 08:56 24,5 C 18,4 C 24,4 C 60 % 69 % 1024,8 hPa 0,0 l/m 7,1 km/h (2 Bft) O-NO 67 12,6 C 18,4 C 7,5 km/h (2 Bft)
17.06.2019 08:54 24,5 C 18,4 C 24,3 C 60 % 69 % 1024,8 hPa 0,0 l/m 6,6 km/h (2 Bft) NO 45 12,6 C 18,4 C 9,5 km/h (2 Bft)
17.06.2019 08:52 24,5 C 18,5 C 23,5 C 60 % 68 % 1024,9 hPa 0,0 l/m 6,6 km/h (2 Bft) N-NO 22 12,5 C 18,5 C 11,6 km/h (2 Bft)
17.06.2019 08:50 24,4 C 18,2 C 22,6 C 60 % 72 % 1024,9 hPa 0,0 l/m 7,2 km/h (2 Bft) N 360 13,1 C 18,2 C 9,5 km/h (2 Bft)
17.06.2019 08:48 24,4 C 17,9 C 21,5 C 60 % 74 % 1024,9 hPa 0,0 l/m 6,9 km/h (2 Bft) O-NO 67 13,2 C 17,9 C 10,8 km/h (2 Bft)
17.06.2019 08:46 24,4 C 17,8 C 21,1 C 60 % 73 % 1024,9 hPa 0,0 l/m 6,4 km/h (2 Bft) NO 45 12,9 C 17,8 C 9,8 km/h (2 Bft)
17.06.2019 08:44 24,4 C 17,7 C 20,9 C 60 % 74 % 1024,9 hPa 0,0 l/m 6,1 km/h (2 Bft) NO 45 13,0 C 17,7 C 8,3 km/h (2 Bft)
17.06.2019 08:42 24,4 C 17,6 C 20,8 C 60 % 73 % 1024,9 hPa 0,0 l/m 6,1 km/h (2 Bft) O-NO 67 12,7 C 17,6 C 11,0 km/h (2 Bft)
17.06.2019 08:40 24,4 C 17,7 C 20,8 C 60 % 73 % 1024,9 hPa 0,0 l/m 5,1 km/h (1 Bft) N-NO 22 12,8 C 17,7 C 11,8 km/h (2 Bft)
17.06.2019 08:38 24,4 C 17,6 C 20,3 C 60 % 76 % 1024,9 hPa 0,0 l/m 4,8 km/h (1 Bft) NO 45 13,3 C 17,6 C 7,3 km/h (2 Bft)
17.06.2019 08:36 24,4 C 17,4 C 19,8 C 60 % 76 % 1024,9 hPa 0,0 l/m 5,3 km/h (1 Bft) N-NO 22 13,1 C 17,4 C 5,8 km/h (2 Bft)
17.06.2019 08:34 24,4 C 17,3 C 19,6 C 60 % 74 % 1024,9 hPa 0,0 l/m 6,0 km/h (2 Bft) N-NW 337 12,6 C 17,3 C 5,0 km/h (1 Bft)
17.06.2019 08:32 24,4 C 17,3 C 19,6 C 60 % 74 % 1024,8 hPa 0,0 l/m 6,1 km/h (2 Bft) NO 45 12,6 C 17,3 C 9,1 km/h (2 Bft)
17.06.2019 08:30 24,4 C 17,4 C 19,8 C 60 % 75 % 1024,8 hPa 0,0 l/m 6,1 km/h (2 Bft) NO 45 12,9 C 17,4 C 8,7 km/h (2 Bft)
17.06.2019 08:28 24,4 C 17,4 C 20,3 C 60 % 74 % 1024,8 hPa 0,0 l/m 6,8 km/h (2 Bft) N-NO 22 12,7 C 17,4 C 7,0 km/h (2 Bft)
17.06.2019 08:26 24,4 C 17,6 C 21,3 C 60 % 72 % 1024,8 hPa 0,0 l/m 6,8 km/h (2 Bft) N-NO 22 12,5 C 17,6 C 10,2 km/h (2 Bft)
17.06.2019 08:24 24,4 C 17,9 C 21,8 C 60 % 72 % 1024,8 hPa 0,0 l/m 6,4 km/h (2 Bft) N-NO 22 12,8 C 17,9 C 12,2 km/h (2 Bft)
17.06.2019 08:22 24,4 C 17,9 C 22,1 C 60 % 74 % 1024,8 hPa 0,0 l/m 6,3 km/h (2 Bft) N-NW 337 13,2 C 17,9 C 7,9 km/h (2 Bft)
17.06.2019 08:20 24,3 C 17,8 C 22,0 C 60 % 74 % 1024,8 hPa 0,0 l/m 6,1 km/h (2 Bft) N-NO 22 13,1 C 17,8 C 7,7 km/h (2 Bft)
17.06.2019 08:18 24,3 C 17,6 C 22,0 C 60 % 76 % 1024,8 hPa 0,0 l/m 6,0 km/h (2 Bft) N-NO 22 13,3 C 17,6 C 9,1 km/h (2 Bft)
17.06.2019 08:16 24,2 C 17,5 C 21,5 C 60 % 77 % 1024,8 hPa 0,0 l/m 5,8 km/h (2 Bft) N-NO 22 13,4 C 17,5 C 8,3 km/h (2 Bft)
17.06.2019 08:14 24,2 C 17,3 C 19,7 C 60 % 77 % 1024,8 hPa 0,0 l/m 5,6 km/h (1 Bft) NO 45 13,2 C 17,3 C 8,9 km/h (2 Bft)
17.06.2019 08:12 24,2 C 16,9 C 19,7 C 60 % 78 % 1024,8 hPa 0,0 l/m 5,8 km/h (2 Bft) NO 45 13,0 C 16,9 C 7,7 km/h (2 Bft)
17.06.2019 08:10 24,2 C 16,9 C 19,5 C 60 % 79 % 1024,8 hPa 0,0 l/m 6,1 km/h (2 Bft) N-NO 22 13,2 C 16,9 C 7,3 km/h (2 Bft)
17.06.2019 08:08 24,2 C 16,9 C 19,5 C 60 % 80 % 1024,8 hPa 0,0 l/m 6,4 km/h (2 Bft) N-NW 337 13,4 C 16,9 C 5,6 km/h (1 Bft)
17.06.2019 08:06 24,2 C 16,9 C 19,4 C 60 % 80 % 1024,8 hPa 0,0 l/m 6,8 km/h (2 Bft) N-NO 22 13,4 C 16,9 C 9,1 km/h (2 Bft)
17.06.2019 08:04 24,1 C 16,7 C 18,8 C 60 % 81 % 1024,8 hPa 0,0 l/m 7,1 km/h (2 Bft) N-NO 22 13,4 C 16,7 C 6,6 km/h (2 Bft)
17.06.2019 08:02 24,2 C 16,6 C 18,7 C 60 % 80 % 1024,8 hPa 0,0 l/m 7,4 km/h (2 Bft) O-NO 67 13,1 C 16,6 C 8,9 km/h (2 Bft)
17.06.2019 08:00 24,2 C 16,6 C 18,7 C 60 % 80 % 1024,8 hPa 0,0 l/m 7,6 km/h (2 Bft) NO 45 13,1 C 16,6 C 10,2 km/h (2 Bft)
17.06.2019 07:58 24,2 C 16,6 C 18,5 C 60 % 79 % 1024,8 hPa 0,0 l/m 8,0 km/h (2 Bft) N-NO 22 12,9 C 16,6 C 9,3 km/h (2 Bft)
17.06.2019 07:56 24,2 C 16,6 C 18,5 C 60 % 79 % 1024,8 hPa 0,0 l/m 8,4 km/h (2 Bft) N-NO 22 12,9 C 16,6 C 10,8 km/h (2 Bft)
17.06.2019 07:54 24,1 C 16,6 C 18,6 C 60 % 77 % 1024,8 hPa 0,0 l/m 8,5 km/h (2 Bft) NO 45 12,5 C 16,6 C 10,8 km/h (2 Bft)
17.06.2019 07:52 24,2 C 16,7 C 19,1 C 60 % 76 % 1024,7 hPa 0,0 l/m 8,7 km/h (2 Bft) N-NO 22 12,4 C 16,7 C 11,8 km/h (2 Bft)
17.06.2019 07:50 24,1 C 16,9 C 20,0 C 60 % 75 % 1024,7 hPa 0,0 l/m 8,9 km/h (2 Bft) NO 45 12,4 C 16,9 C 12,6 km/h (3 Bft)
17.06.2019 07:48 24,1 C 16,9 C 20,1 C 60 % 75 % 1024,7 hPa 0,0 l/m 8,9 km/h (2 Bft) NO 45 12,4 C 16,9 C 11,4 km/h (2 Bft)
17.06.2019 07:46 24,1 C 16,9 C 20,0 C 60 % 76 % 1024,7 hPa 0,0 l/m 8,9 km/h (2 Bft) NO 45 12,6 C 16,9 C 10,8 km/h (2 Bft)
17.06.2019 07:44 24,1 C 16,9 C 19,9 C 60 % 76 % 1024,7 hPa 0,0 l/m 9,0 km/h (2 Bft) NO 45 12,6 C 16,9 C 12,7 km/h (3 Bft)
17.06.2019 07:42 24,1 C 17,0 C 20,1 C 60 % 76 % 1024,7 hPa 0,0 l/m 9,0 km/h (2 Bft) NO 45 12,7 C 17,0 C 10,4 km/h (2 Bft)
17.06.2019 07:40 24,1 C 16,9 C 20,1 C 60 % 77 % 1024,7 hPa 0,0 l/m 9,2 km/h (2 Bft) NO 45 12,8 C 16,9 C 10,2 km/h (2 Bft)
17.06.2019 07:38 24,0 C 17,0 C 20,0 C 60 % 76 % 1024,7 hPa 0,0 l/m 9,0 km/h (2 Bft) NO 45 12,7 C 17,0 C 9,1 km/h (2 Bft)
17.06.2019 07:36 24,0 C 17,0 C 19,9 C 60 % 76 % 1024,7 hPa 0,0 l/m 9,0 km/h (2 Bft) NO 45 12,7 C 17,0 C 13,1 km/h (3 Bft)
17.06.2019 07:34 24,0 C 16,8 C 19,8 C 61 % 76 % 1024,7 hPa 0,0 l/m 9,0 km/h (2 Bft) NO 45 12,5 C 16,8 C 12,0 km/h (2 Bft)
17.06.2019 07:32 24,0 C 16,8 C 19,7 C 61 % 76 % 1024,3 hPa 0,0 l/m 8,9 km/h (2 Bft) NO 45 12,5 C 16,8 C 10,8 km/h (2 Bft)
17.06.2019 07:30 24,0 C 16,9 C 19,6 C 61 % 77 % 1024,3 hPa 0,0 l/m 8,9 km/h (2 Bft) N-NO 22 12,8 C 16,9 C 11,6 km/h (2 Bft)
17.06.2019 07:28 24,0 C 16,8 C 19,3 C 61 % 77 % 1024,3 hPa 0,0 l/m 9,0 km/h (2 Bft) N-NO 22 12,7 C 16,8 C 11,8 km/h (2 Bft)
17.06.2019 07:26 24,0 C 16,7 C 19,1 C 61 % 77 % 1024,3 hPa 0,0 l/m 9,0 km/h (2 Bft) NO 45 12,6 C 16,7 C 11,4 km/h (2 Bft)
17.06.2019 07:24 23,9 C 16,6 C 18,7 C 61 % 78 % 1024,3 hPa 0,0 l/m 9,0 km/h (2 Bft) N-NO 22 12,7 C 16,6 C 10,2 km/h (2 Bft)
17.06.2019 07:22 23,9 C 16,6 C 18,6 C 61 % 77 % 1024,3 hPa 0,0 l/m 9,3 km/h (2 Bft) NO 45 12,5 C 16,6 C 11,4 km/h (2 Bft)
17.06.2019 07:20 23,9 C 16,6 C 18,7 C 61 % 77 % 1024,3 hPa 0,0 l/m 9,5 km/h (2 Bft) N-NO 22 12,5 C 16,6 C 12,6 km/h (3 Bft)
17.06.2019 07:18 23,9 C 16,6 C 18,6 C 61 % 77 % 1024,3 hPa 0,0 l/m 9,5 km/h (2 Bft) N-NO 22 12,5 C 16,6 C 12,7 km/h (3 Bft)
17.06.2019 07:16 23,9 C 16,5 C 18,6 C 61 % 77 % 1024,3 hPa 0,0 l/m 9,7 km/h (2 Bft) N-NO 22 12,5 C 16,5 C 14,3 km/h (3 Bft)
17.06.2019 07:14 23,9 C 16,4 C 18,3 C 61 % 79 % 1024,3 hPa 0,0 l/m 9,5 km/h (2 Bft) N-NO 22 12,7 C 16,4 C 13,3 km/h (3 Bft)
17.06.2019 07:12 23,8 C 16,3 C 18,1 C 61 % 79 % 1024,3 hPa 0,0 l/m 9,3 km/h (2 Bft) N-NO 22 12,6 C 16,3 C 14,9 km/h (3 Bft)
17.06.2019 07:10 23,9 C 16,3 C 18,2 C 61 % 78 % 1024,3 hPa 0,0 l/m 9,0 km/h (2 Bft) N-NO 22 12,5 C 16,3 C 13,9 km/h (3 Bft)
17.06.2019 07:08 23,8 C 16,3 C 18,3 C 61 % 79 % 1024,3 hPa 0,0 l/m 9,0 km/h (2 Bft) NO 45 12,6 C 16,3 C 13,3 km/h (3 Bft)
17.06.2019 07:06 23,8 C 16,3 C 18,5 C 61 % 78 % 1024,3 hPa 0,0 l/m 9,0 km/h (2 Bft) NO 45 12,5 C 16,3 C 11,8 km/h (2 Bft)
17.06.2019 07:04 23,8 C 16,3 C 18,4 C 61 % 79 % 1024,3 hPa 0,0 l/m 9,5 km/h (2 Bft) N-NO 22 12,6 C 16,3 C 12,7 km/h (3 Bft)
17.06.2019 07:02 23,8 C 16,2 C 18,1 C 61 % 79 % 1024,3 hPa 0,0 l/m 9,5 km/h (2 Bft) NO 45 12,6 C 16,2 C 9,5 km/h (2 Bft)
17.06.2019 07:00 23,8 C 16,1 C 17,9 C 61 % 79 % 1024,3 hPa 0,0 l/m 9,5 km/h (2 Bft) NO 45 12,5 C 16,1 C 12,0 km/h (2 Bft)
17.06.2019 06:58 23,8 C 16,0 C 17,6 C 61 % 79 % 1024,3 hPa 0,0 l/m 9,3 km/h (2 Bft) N-NO 22 12,4 C 16,0 C 9,8 km/h (2 Bft)
17.06.2019 06:56 23,8 C 16,0 C 17,4 C 61 % 79 % 1024,3 hPa 0,0 l/m 9,5 km/h (2 Bft) N-NO 22 12,4 C 16,0 C 14,9 km/h (3 Bft)
17.06.2019 06:54 23,7 C 16,0 C 17,5 C 61 % 79 % 1024,3 hPa 0,0 l/m 9,0 km/h (2 Bft) NO 45 12,4 C 16,0 C 14,5 km/h (3 Bft)
17.06.2019 06:52 23,8 C 16,0 C 17,4 C 61 % 79 % 1024,1 hPa 0,0 l/m 8,5 km/h (2 Bft) NO 45 12,4 C 16,0 C 12,4 km/h (3 Bft)
17.06.2019 06:50 23,7 C 16,0 C 17,4 C 61 % 80 % 1024,1 hPa 0,0 l/m 8,0 km/h (2 Bft) N-NO 22 12,5 C 16,0 C 11,6 km/h (2 Bft)
17.06.2019 06:48 23,7 C 15,9 C 17,2 C 61 % 80 % 1024,1 hPa 0,0 l/m 7,9 km/h (2 Bft) N 360 12,5 C 15,9 C 10,4 km/h (2 Bft)
17.06.2019 06:46 23,7 C 15,8 C 17,1 C 61 % 81 % 1024,1 hPa 0,0 l/m 8,0 km/h (2 Bft) N-NO 22 12,5 C 15,8 C 13,3 km/h (3 Bft)
17.06.2019 06:44 23,7 C 15,8 C 17,1 C 61 % 81 % 1024,1 hPa 0,0 l/m 8,0 km/h (2 Bft) N 360 12,5 C 15,8 C 10,4 km/h (2 Bft)
17.06.2019 06:42 23,7 C 15,7 C 17,0 C 61 % 81 % 1024,1 hPa 0,0 l/m 8,4 km/h (2 Bft) N 360 12,4 C 15,7 C 13,3 km/h (3 Bft)
17.06.2019 06:40 23,7 C 15,6 C 16,8 C 61 % 81 % 1024,1 hPa 0,0 l/m 8,4 km/h (2 Bft) N-NO 22 12,3 C 15,6 C 12,7 km/h (3 Bft)
17.06.2019 06:38 23,7 C 15,5 C 16,7 C 61 % 82 % 1024,1 hPa 0,0 l/m 8,4 km/h (2 Bft) N-NO 22 12,4 C 15,5 C 11,0 km/h (2 Bft)
17.06.2019 06:36 23,7 C 15,4 C 16,5 C 61 % 82 % 1024,1 hPa 0,0 l/m 8,2 km/h (2 Bft) N 360 12,3 C 15,4 C 12,6 km/h (3 Bft)
17.06.2019 06:34 23,7 C 15,3 C 16,3 C 61 % 82 % 1024,1 hPa 0,0 l/m 7,9 km/h (2 Bft) N-NO 22 12,2 C 15,3 C 9,8 km/h (2 Bft)
17.06.2019 06:32 23,7 C 15,3 C 16,3 C 61 % 83 % 1024,1 hPa 0,0 l/m 7,9 km/h (2 Bft) N-NO 22 12,4 C 15,3 C 12,0 km/h (2 Bft)
17.06.2019 06:30 23,7 C 15,3 C 16,2 C 61 % 83 % 1024,1 hPa 0,0 l/m 7,7 km/h (2 Bft) N 360 12,4 C 15,3 C 9,7 km/h (2 Bft)
17.06.2019 06:28 23,6 C 15,2 C 16,2 C 61 % 83 % 1024,1 hPa 0,0 l/m 8,0 km/h (2 Bft) N 360 12,3 C 15,2 C 8,5 km/h (2 Bft)
17.06.2019 06:26 23,7 C 15,1 C 16,1 C 61 % 83 % 1024,1 hPa 0,0 l/m 8,0 km/h (2 Bft) N-NO 22 12,2 C 15,1 C 12,4 km/h (3 Bft)
17.06.2019 06:24 23,7 C 15,1 C 16,2 C 61 % 83 % 1024,1 hPa 0,0 l/m 7,9 km/h (2 Bft) N 360 12,2 C 15,1 C 11,8 km/h (2 Bft)
17.06.2019 06:22 23,6 C 15,1 C 16,1 C 61 % 84 % 1024,1 hPa 0,0 l/m 7,6 km/h (2 Bft) N-NO 22 12,4 C 15,1 C 11,6 km/h (2 Bft)
17.06.2019 06:20 23,6 C 15,1 C 16,0 C 61 % 84 % 1024,1 hPa 0,0 l/m 7,4 km/h (2 Bft) N-NO 22 12,4 C 15,1 C 12,4 km/h (3 Bft)
17.06.2019 06:18 23,6 C 15,0 C 15,9 C 61 % 85 % 1024,1 hPa 0,0 l/m 7,1 km/h (2 Bft) N-NO 22 12,5 C 15,0 C 11,2 km/h (2 Bft)
17.06.2019 06:16 23,6 C 14,9 C 15,8 C 61 % 86 % 1024,1 hPa 0,0 l/m 6,6 km/h (2 Bft) N 360 12,6 C 14,9 C 10,6 km/h (2 Bft)
17.06.2019 06:14 23,6 C 14,8 C 15,6 C 61 % 86 % 1024,1 hPa 0,0 l/m 6,8 km/h (2 Bft) N-NO 22 12,5 C 14,8 C 7,9 km/h (2 Bft)
17.06.2019 06:12 23,6 C 14,5 C 14,6 C 61 % 88 % 1024,2 hPa 0,0 l/m 6,0 km/h (2 Bft) N-NO 22 12,5 C 14,5 C 9,1 km/h (2 Bft)
17.06.2019 06:10 23,6 C 14,5 C 14,6 C 61 % 88 % 1024,2 hPa 0,0 l/m 6,0 km/h (2 Bft) N-NO 22 12,5 C 14,5 C 9,1 km/h (2 Bft)
17.06.2019 06:08 23,6 C 14,5 C 14,6 C 61 % 88 % 1024,2 hPa 0,0 l/m 6,0 km/h (2 Bft) N-NO 22 12,5 C 14,5 C 9,1 km/h (2 Bft)
17.06.2019 06:06 23,6 C 14,5 C 14,6 C 61 % 88 % 1024,2 hPa 0,0 l/m 6,0 km/h (2 Bft) N-NO 22 12,5 C 14,5 C 9,3 km/h (2 Bft)
17.06.2019 06:04 23,6 C 14,5 C 14,6 C 61 % 88 % 1024,2 hPa 0,0 l/m 6,0 km/h (2 Bft) N-NO 22 12,5 C 14,5 C 9,1 km/h (2 Bft)
17.06.2019 06:02 23,6 C 14,5 C 14,6 C 61 % 88 % 1024,2 hPa 0,0 l/m 6,0 km/h (2 Bft) N-NO 22 12,5 C 14,5 C 8,3 km/h (2 Bft)
17.06.2019 06:00 23,6 C 14,4 C 14,5 C 61 % 88 % 1024,2 hPa 0,0 l/m 5,6 km/h (1 Bft) N-NO 22 12,4 C 14,4 C 8,1 km/h (2 Bft)
17.06.2019 05:58 23,6 C 14,4 C 14,4 C 61 % 88 % 1024,2 hPa 0,0 l/m 5,5 km/h (1 Bft) N 360 12,4 C 14,4 C 7,0 km/h (2 Bft)
17.06.2019 05:56 23,6 C 14,4 C 14,3 C 61 % 88 % 1024,2 hPa 0,0 l/m 5,3 km/h (1 Bft) N-NO 22 12,4 C 14,4 C 7,0 km/h (2 Bft)
17.06.2019 05:54 23,6 C 14,3 C 14,2 C 61 % 88 % 1024,2 hPa 0,0 l/m 5,1 km/h (1 Bft) N-NO 22 12,3 C 14,3 C 7,3 km/h (2 Bft)
17.06.2019 05:52 23,6 C 14,3 C 14,1 C 61 % 88 % 1024,4 hPa 0,0 l/m 5,1 km/h (1 Bft) N-NO 22 12,3 C 14,3 C 6,4 km/h (2 Bft)
17.06.2019 05:50 23,6 C 14,2 C 14,0 C 61 % 88 % 1024,4 hPa 0,0 l/m 5,1 km/h (1 Bft) N-NO 22 12,2 C 14,2 C 7,1 km/h (2 Bft)
17.06.2019 05:48 23,6 C 14,1 C 13,9 C 61 % 88 % 1024,4 hPa 0,0 l/m 5,0 km/h (1 Bft) N 360 12,1 C 14,1 C 7,3 km/h (2 Bft)
17.06.2019 05:46 23,6 C 14,0 C 13,7 C 61 % 88 % 1024,4 hPa 0,0 l/m 5,0 km/h (1 Bft) N 360 12,0 C 14,0 C 6,0 km/h (2 Bft)
17.06.2019 05:44 23,6 C 13,9 C 13,6 C 61 % 89 % 1024,4 hPa 0,0 l/m 4,7 km/h (1 Bft) N-NO 22 12,1 C 13,9 C 6,6 km/h (2 Bft)
17.06.2019 05:42 23,6 C 13,8 C 13,4 C 61 % 89 % 1024,4 hPa 0,0 l/m 4,7 km/h (1 Bft) N-NO 22 12,0 C 13,8 C 7,0 km/h (2 Bft)
17.06.2019 05:40 23,6 C 13,7 C 13,1 C 61 % 88 % 1024,4 hPa 0,0 l/m 4,5 km/h (1 Bft) N-NO 22 11,7 C 13,7 C 7,5 km/h (2 Bft)
17.06.2019 05:38 23,6 C 13,7 C 13,0 C 61 % 88 % 1024,4 hPa 0,0 l/m 4,3 km/h (1 Bft) N-NO 22 11,7 C 13,7 C 5,8 km/h (2 Bft)
17.06.2019 05:36 23,6 C 13,6 C 12,8 C 61 % 88 % 1024,4 hPa 0,0 l/m 4,3 km/h (1 Bft) N-NO 22 11,6 C 13,6 C 5,4 km/h (1 Bft)
17.06.2019 05:34 23,6 C 13,6 C 12,7 C 61 % 88 % 1024,4 hPa 0,0 l/m 4,2 km/h (1 Bft) N-NO 22 11,6 C 13,6 C 5,4 km/h (1 Bft)
17.06.2019 05:32 23,6 C 13,6 C 12,6 C 61 % 88 % 1024,4 hPa 0,0 l/m 4,0 km/h (1 Bft) N-NO 22 11,6 C 13,6 C 5,8 km/h (2 Bft)
17.06.2019 05:30 23,6 C 13,6 C 12,4 C 61 % 88 % 1024,4 hPa 0,0 l/m 3,9 km/h (1 Bft) N-NO 22 11,6 C 13,6 C 6,0 km/h (2 Bft)
17.06.2019 05:28 23,6 C 13,5 C 12,3 C 61 % 88 % 1024,4 hPa 0,0 l/m 3,9 km/h (1 Bft) N-NO 22 11,6 C 13,5 C 6,0 km/h (2 Bft)
17.06.2019 05:26 23,6 C 13,5 C 12,2 C 61 % 88 % 1024,4 hPa 0,0 l/m 3,9 km/h (1 Bft) N-NO 22 11,6 C 13,5 C 5,4 km/h (1 Bft)
17.06.2019 05:24 23,6 C 13,4 C 12,1 C 61 % 88 % 1024,4 hPa 0,0 l/m 4,0 km/h (1 Bft) N-NO 22 11,5 C 13,4 C 4,4 km/h (1 Bft)
17.06.2019 05:22 23,6 C 13,4 C 12,1 C 61 % 88 % 1024,4 hPa 0,0 l/m 4,2 km/h (1 Bft) N-NO 22 11,5 C 13,4 C 4,4 km/h (1 Bft)
17.06.2019 05:20 23,6 C 13,5 C 12,1 C 61 % 88 % 1024,4 hPa 0,0 l/m 4,3 km/h (1 Bft) N-NO 22 11,6 C 13,5 C 5,0 km/h (1 Bft)
17.06.2019 05:18 23,6 C 13,6 C 12,1 C 61 % 88 % 1024,4 hPa 0,0 l/m 4,5 km/h (1 Bft) N-NO 22 11,6 C 13,6 C 5,6 km/h (1 Bft)
17.06.2019 05:16 23,6 C 13,6 C 12,2 C 61 % 88 % 1024,4 hPa 0,0 l/m 4,7 km/h (1 Bft) N-NO 22 11,6 C 13,6 C 5,4 km/h (1 Bft)
17.06.2019 05:14 23,6 C 13,6 C 12,4 C 61 % 88 % 1024,4 hPa 0,0 l/m 4,8 km/h (1 Bft) N-NO 22 11,6 C 13,6 C 5,2 km/h (1 Bft)
17.06.2019 05:12 23,6 C 13,7 C 12,4 C 61 % 88 % 1024,2 hPa 0,0 l/m 4,8 km/h (1 Bft) N 360 11,7 C 13,7 C 5,2 km/h (1 Bft)
17.06.2019 05:10 23,6 C 13,6 C 12,4 C 61 % 88 % 1024,2 hPa 0,0 l/m 4,8 km/h (1 Bft) N-NO 22 11,6 C 13,6 C 6,4 km/h (2 Bft)
17.06.2019 05:08 23,6 C 13,6 C 12,3 C 61 % 88 % 1024,2 hPa 0,0 l/m 4,7 km/h (1 Bft) N-NO 22 11,6 C 13,6 C 7,1 km/h (2 Bft)
17.06.2019 05:06 23,6 C 13,6 C 12,3 C 61 % 88 % 1024,2 hPa 0,0 l/m 4,7 km/h (1 Bft) N-NO 22 11,6 C 13,6 C 5,4 km/h (1 Bft)
17.06.2019 05:04 23,6 C 13,6 C 12,3 C 61 % 88 % 1024,2 hPa 0,0 l/m 4,7 km/h (1 Bft) N-NO 22 11,6 C 13,6 C 5,4 km/h (1 Bft)
17.06.2019 05:02 23,6 C 13,7 C 12,3 C 61 % 88 % 1024,2 hPa 0,0 l/m 4,5 km/h (1 Bft) N 360 11,7 C 13,7 C 6,0 km/h (2 Bft)
17.06.2019 05:00 23,6 C 13,7 C 12,4 C 61 % 88 % 1024,2 hPa 0,0 l/m 4,5 km/h (1 Bft) N-NO 22 11,7 C 13,7 C 6,0 km/h (2 Bft)
17.06.2019 04:58 23,6 C 13,8 C 12,3 C 61 % 88 % 1024,2 hPa 0,0 l/m 4,5 km/h (1 Bft) N 360 11,8 C 13,8 C 6,6 km/h (2 Bft)
17.06.2019 04:56 23,6 C 13,8 C 12,3 C 61 % 88 % 1024,2 hPa 0,0 l/m 4,7 km/h (1 Bft) N 360 11,8 C 13,8 C 6,2 km/h (2 Bft)
17.06.2019 04:54 23,6 C 13,8 C 12,3 C 61 % 88 % 1024,2 hPa 0,0 l/m 4,7 km/h (1 Bft) N-NO 22 11,8 C 13,8 C 5,8 km/h (2 Bft)
17.06.2019 04:52 23,6 C 13,9 C 12,5 C 61 % 88 % 1024,0 hPa 0,0 l/m 4,8 km/h (1 Bft) N-NO 22 11,9 C 13,9 C 5,4 km/h (1 Bft)
17.06.2019 04:50 23,6 C 14,1 C 12,7 C 61 % 88 % 1024,0 hPa 0,0 l/m 4,8 km/h (1 Bft) N-NO 22 12,1 C 14,1 C 5,4 km/h (1 Bft)
17.06.2019 04:48 23,6 C 14,1 C 12,7 C 61 % 89 % 1024,0 hPa 0,0 l/m 4,8 km/h (1 Bft) N-NO 22 12,3 C 14,1 C 5,6 km/h (1 Bft)
17.06.2019 04:46 23,6 C 13,9 C 12,5 C 61 % 88 % 1024,0 hPa 0,0 l/m 4,7 km/h (1 Bft) N-NO 22 11,9 C 13,9 C 6,6 km/h (2 Bft)
17.06.2019 04:44 23,6 C 13,7 C 12,4 C 61 % 88 % 1024,0 hPa 0,0 l/m 4,2 km/h (1 Bft) N-NO 22 11,7 C 13,7 C 7,0 km/h (2 Bft)
17.06.2019 04:42 23,6 C 13,6 C 12,1 C 61 % 88 % 1024,0 hPa 0,0 l/m 4,0 km/h (1 Bft) N-NO 22 11,6 C 13,6 C 6,0 km/h (2 Bft)
17.06.2019 04:40 23,6 C 13,4 C 11,9 C 61 % 88 % 1024,0 hPa 0,0 l/m 4,0 km/h (1 Bft) NO 45 11,5 C 13,4 C 6,4 km/h (2 Bft)
17.06.2019 04:38 23,6 C 13,3 C 11,9 C 61 % 88 % 1024,0 hPa 0,0 l/m 4,0 km/h (1 Bft) NO 45 11,4 C 13,3 C 5,6 km/h (1 Bft)
17.06.2019 04:36 23,6 C 13,5 C 11,9 C 61 % 88 % 1024,0 hPa 0,0 l/m 4,0 km/h (1 Bft) N-NO 22 11,6 C 13,5 C 4,2 km/h (1 Bft)
17.06.2019 04:34 23,6 C 13,6 C 11,6 C 61 % 88 % 1024,0 hPa 0,0 l/m 3,9 km/h (1 Bft) N-NO 22 11,6 C 13,6 C 5,0 km/h (1 Bft)
17.06.2019 04:32 23,6 C 13,6 C 11,6 C 61 % 88 % 1024,1 hPa 0,0 l/m 3,7 km/h (1 Bft) N-NO 22 11,6 C 13,6 C 5,2 km/h (1 Bft)
17.06.2019 04:30 23,6 C 13,6 C 11,4 C 61 % 88 % 1024,1 hPa 0,0 l/m 3,4 km/h (1 Bft) N-NO 22 11,6 C 13,6 C 6,4 km/h (2 Bft)
17.06.2019 04:28 23,6 C 13,6 C 11,3 C 61 % 88 % 1024,1 hPa 0,0 l/m 3,1 km/h (1 Bft) N 360 11,6 C 13,6 C 5,0 km/h (1 Bft)
17.06.2019 04:26 23,6 C 13,5 C 11,3 C 61 % 88 % 1024,1 hPa 0,0 l/m 2,7 km/h (1 Bft) N-NO 22 11,6 C 13,5 C 4,6 km/h (1 Bft)
17.06.2019 04:24 23,6 C 13,5 C 11,3 C 61 % 88 % 1024,1 hPa 0,0 l/m 2,7 km/h (1 Bft) N-NO 22 11,6 C 13,5 C 4,4 km/h (1 Bft)
17.06.2019 04:22 23,6 C 13,7 C 11,3 C 61 % 88 % 1024,1 hPa 0,0 l/m 2,7 km/h (1 Bft) N-NO 22 11,7 C 13,7 C 3,7 km/h (1 Bft)
17.06.2019 04:20 23,6 C 13,9 C 11,3 C 61 % 88 % 1024,1 hPa 0,0 l/m 2,7 km/h (1 Bft) NO 45 11,9 C 13,9 C 3,7 km/h (1 Bft)
17.06.2019 04:18 23,6 C 14,3 C 11,6 C 61 % 89 % 1024,1 hPa 0,0 l/m 2,9 km/h (1 Bft) N-NO 22 12,5 C 14,3 C 3,5 km/h (1 Bft)
17.06.2019 04:16 23,6 C 14,3 C 11,8 C 61 % 89 % 1024,1 hPa 0,0 l/m 3,1 km/h (1 Bft) N-NO 22 12,5 C 14,3 C 3,5 km/h (1 Bft)
17.06.2019 04:14 23,6 C 14,3 C 12,0 C 61 % 89 % 1024,1 hPa 0,0 l/m 3,2 km/h (1 Bft) N-NO 22 12,5 C 14,3 C 4,2 km/h (1 Bft)
17.06.2019 04:12 23,7 C 14,2 C 12,3 C 61 % 89 % 1024,1 hPa 0,0 l/m 3,2 km/h (1 Bft) N-NO 22 12,4 C 14,2 C 3,3 km/h (1 Bft)
17.06.2019 04:10 23,6 C 14,1 C 12,8 C 61 % 89 % 1024,1 hPa 0,0 l/m 3,2 km/h (1 Bft) N-NO 22 12,3 C 14,1 C 3,9 km/h (1 Bft)
17.06.2019 04:08 23,6 C 14,1 C 12,8 C 61 % 89 % 1024,1 hPa 0,0 l/m 2,6 km/h (1 Bft) N-NO 22 12,3 C 14,1 C 4,6 km/h (1 Bft)
17.06.2019 04:06 23,7 C 14,1 C 12,8 C 61 % 89 % 1024,1 hPa 0,0 l/m 2,1 km/h (1 Bft) N 360 12,3 C 14,1 C 4,4 km/h (1 Bft)
17.06.2019 04:04 23,6 C 14,1 C 13,0 C 61 % 88 % 1024,1 hPa 0,0 l/m 1,4 km/h (1 Bft) N-NO 22 12,1 C 14,1 C 3,7 km/h (1 Bft)
17.06.2019 04:02 23,6 C 14,0 C 13,0 C 61 % 88 % 1024,1 hPa 0,0 l/m 1,0 km/h (0 Bft) N-NO 22 12,0 C 14,0 C 4,6 km/h (1 Bft)
17.06.2019 04:00 23,6 C 14,0 C 13,2 C 61 % 87 % 1024,1 hPa 0,0 l/m 0,3 km/h (0 Bft) NO 45 11,9 C 14,0 C 2,7 km/h (1 Bft)
17.06.2019 03:58 23,6 C 14,0 C 13,4 C 61 % 87 % 1024,1 hPa 0,0 l/m 0,3 km/h (0 Bft) O-NO 67 11,9 C 14,0 C 1,9 km/h (1 Bft)
17.06.2019 03:56 23,7 C 14,0 C 13,4 C 61 % 87 % 1024,1 hPa 0,0 l/m 1,0 km/h (0 Bft) NW 315 11,9 C 14,0 C 0,0 km/h (0 Bft)
17.06.2019 03:54 23,6 C 14,0 C 13,6 C 61 % 87 % 1024,1 hPa 0,0 l/m 1,3 km/h (1 Bft) NW 315 11,9 C 14,0 C 0,0 km/h (0 Bft)
17.06.2019 03:52 23,6 C 14,0 C 13,7 C 61 % 88 % 1024,0 hPa 0,0 l/m 1,3 km/h (1 Bft) NW 315 12,0 C 14,0 C 0,0 km/h (0 Bft)
17.06.2019 03:50 23,6 C 14,0 C 13,7 C 61 % 88 % 1024,0 hPa 0,0 l/m 1,6 km/h (1 Bft) W-NW 292 12,0 C 14,0 C 0,0 km/h (0 Bft)
17.06.2019 03:48 23,7 C 13,9 C 13,6 C 61 % 88 % 1024,0 hPa 0,0 l/m 1,9 km/h (1 Bft) NW 315 11,9 C 13,9 C 3,1 km/h (1 Bft)
17.06.2019 03:46 23,7 C 13,9 C 13,6 C 61 % 87 % 1024,0 hPa 0,0 l/m 1,8 km/h (1 Bft) NW 315 11,8 C 13,9 C 3,5 km/h (1 Bft)
17.06.2019 03:44 23,7 C 13,9 C 13,6 C 61 % 87 % 1024,0 hPa 0,0 l/m 1,3 km/h (1 Bft) NW 315 11,8 C 13,9 C 2,3 km/h (1 Bft)
17.06.2019 03:42 23,7 C 13,8 C 13,6 C 61 % 87 % 1024,0 hPa 0,0 l/m 1,0 km/h (0 Bft) N 360 11,7 C 13,8 C 0,0 km/h (0 Bft)
17.06.2019 03:40 23,7 C 13,8 C 13,5 C 61 % 87 % 1024,0 hPa 0,0 l/m 1,0 km/h (0 Bft) NO 45 11,7 C 13,8 C 2,7 km/h (1 Bft)
17.06.2019 03:38 23,7 C 13,9 C 13,4 C 61 % 87 % 1024,0 hPa 0,0 l/m 0,5 km/h (0 Bft) NO 45 11,8 C 13,9 C 3,5 km/h (1 Bft)
17.06.2019 03:36 23,7 C 13,9 C 13,3 C 61 % 87 % 1024,0 hPa 0,0 l/m 0,2 km/h (0 Bft) NO 45 11,8 C 13,9 C 2,3 km/h (1 Bft)
17.06.2019 03:34 23,7 C 14,0 C 13,1 C 61 % 87 % 1024,0 hPa 0,0 l/m 0,2 km/h (0 Bft) N 360 11,9 C 14,0 C 0,0 km/h (0 Bft)
17.06.2019 03:32 23,7 C 14,0 C 13,1 C 61 % 87 % 1024,1 hPa 0,0 l/m 0,2 km/h (0 Bft) NW 315 11,9 C 14,0 C 0,0 km/h (0 Bft)
17.06.2019 03:30 23,7 C 13,9 C 12,9 C 61 % 87 % 1024,1 hPa 0,0 l/m 0,2 km/h (0 Bft) O-NO 67 11,8 C 13,9 C 0,0 km/h (0 Bft)
17.06.2019 03:28 23,7 C 13,9 C 12,7 C 61 % 87 % 1024,1 hPa 0,0 l/m 0,2 km/h (0 Bft) W-NW 292 11,8 C 13,9 C 0,0 km/h (0 Bft)
17.06.2019 03:26 23,7 C 13,8 C 12,6 C 61 % 87 % 1024,1 hPa 0,0 l/m 0,2 km/h (0 Bft) W 270 11,7 C 13,8 C 0,0 km/h (0 Bft)
17.06.2019 03:24 23,7 C 13,9 C 12,4 C 61 % 86 % 1024,1 hPa 0,0 l/m 0,0 km/h (0 Bft) NW 315 11,6 C 13,9 C 1,9 km/h (1 Bft)
17.06.2019 03:22 23,7 C 14,0 C 12,1 C 61 % 87 % 1024,1 hPa 0,0 l/m 0,0 km/h (0 Bft) W 270 11,9 C 14,0 C 0,0 km/h (0 Bft)
17.06.2019 03:20 23,7 C 13,9 C 12,0 C 61 % 87 % 1024,1 hPa 0,0 l/m 0,0 km/h (0 Bft) NW 315 11,8 C 13,9 C 0,0 km/h (0 Bft)
17.06.2019 03:18 23,7 C 13,9 C 11,9 C 61 % 87 % 1024,1 hPa 0,0 l/m 0,0 km/h (0 Bft) SO 135 11,8 C 13,9 C 0,0 km/h (0 Bft)
17.06.2019 03:16 23,7 C 14,0 C 11,8 C 61 % 87 % 1024,1 hPa 0,0 l/m 0,3 km/h (0 Bft) SO 135 11,9 C 14,0 C 0,0 km/h (0 Bft)
17.06.2019 03:14 23,7 C 14,0 C 11,9 C 61 % 87 % 1024,1 hPa 0,0 l/m 0,6 km/h (0 Bft) N 360 11,9 C 14,0 C 0,0 km/h (0 Bft)
17.06.2019 03:12 23,7 C 14,4 C 12,7 C 61 % 88 % 1024,0 hPa 0,0 l/m 2,3 km/h (1 Bft) NW 315 12,4 C 14,4 C 2,9 km/h (1 Bft)
17.06.2019 03:10 23,7 C 14,4 C 12,7 C 61 % 88 % 1024,0 hPa 0,0 l/m 2,3 km/h (1 Bft) NW 315 12,4 C 14,4 C 2,9 km/h (1 Bft)
17.06.2019 03:08 23,7 C 14,4 C 12,7 C 61 % 88 % 1024,0 hPa 0,0 l/m 2,3 km/h (1 Bft) NW 315 12,4 C 14,4 C 2,9 km/h (1 Bft)
17.06.2019 03:06 23,7 C 14,4 C 12,7 C 61 % 88 % 1024,0 hPa 0,0 l/m 2,3 km/h (1 Bft) NW 315 12,4 C 14,4 C 2,9 km/h (1 Bft)
17.06.2019 03:04 23,8 C 14,4 C 12,7 C 61 % 88 % 1024,0 hPa 0,0 l/m 2,3 km/h (1 Bft) NW 315 12,4 C 14,4 C 2,9 km/h (1 Bft)
17.06.2019 03:02 23,7 C 14,4 C 12,7 C 61 % 88 % 1024,0 hPa 0,0 l/m 2,3 km/h (1 Bft) NW 315 12,4 C 14,4 C 2,9 km/h (1 Bft)
17.06.2019 03:00 23,8 C 14,4 C 12,8 C 61 % 88 % 1024,0 hPa 0,0 l/m 2,4 km/h (1 Bft) N-NW 337 12,4 C 14,4 C 2,9 km/h (1 Bft)
17.06.2019 02:58 23,8 C 14,4 C 13,0 C 61 % 88 % 1024,0 hPa 0,0 l/m 2,4 km/h (1 Bft) N-NW 337 12,4 C 14,4 C 1,9 km/h (1 Bft)
17.06.2019 02:56 23,7 C 14,4 C 13,1 C 61 % 88 % 1024,0 hPa 0,0 l/m 2,3 km/h (1 Bft) N-NW 337 12,4 C 14,4 C 3,3 km/h (1 Bft)
17.06.2019 02:54 23,7 C 14,4 C 13,3 C 61 % 87 % 1024,0 hPa 0,0 l/m 1,9 km/h (1 Bft) NW 315 12,3 C 14,4 C 3,5 km/h (1 Bft)
17.06.2019 02:52 23,8 C 14,1 C 13,3 C 61 % 87 % 1024,1 hPa 0,0 l/m 1,8 km/h (1 Bft) N-NW 337 12,0 C 14,1 C 3,5 km/h (1 Bft)
17.06.2019 02:50 23,7 C 14,1 C 13,4 C 61 % 87 % 1024,1 hPa 0,0 l/m 2,1 km/h (1 Bft) NW 315 12,0 C 14,1 C 3,1 km/h (1 Bft)
17.06.2019 02:48 23,8 C 14,2 C 13,5 C 61 % 87 % 1024,1 hPa 0,0 l/m 2,6 km/h (1 Bft) NW 315 12,1 C 14,2 C 3,3 km/h (1 Bft)
17.06.2019 02:46 23,7 C 14,3 C 13,6 C 61 % 87 % 1024,1 hPa 0,0 l/m 2,9 km/h (1 Bft) N-NW 337 12,2 C 14,3 C 0,0 km/h (0 Bft)
17.06.2019 02:44 23,7 C 14,3 C 13,6 C 61 % 87 % 1024,1 hPa 0,0 l/m 3,5 km/h (1 Bft) N 360 12,2 C 14,3 C 2,5 km/h (1 Bft)
17.06.2019 02:42 23,7 C 14,3 C 13,5 C 61 % 87 % 1024,1 hPa 0,0 l/m 3,7 km/h (1 Bft) N-NO 22 12,2 C 14,3 C 3,3 km/h (1 Bft)
17.06.2019 02:40 23,7 C 14,2 C 13,4 C 61 % 87 % 1024,1 hPa 0,0 l/m 3,9 km/h (1 Bft) NO 45 12,1 C 14,2 C 5,6 km/h (1 Bft)
17.06.2019 02:38 23,7 C 14,2 C 13,2 C 61 % 87 % 1024,1 hPa 0,0 l/m 3,5 km/h (1 Bft) NO 45 12,1 C 14,2 C 6,0 km/h (2 Bft)
17.06.2019 02:36 23,7 C 14,4 C 13,1 C 61 % 87 % 1024,1 hPa 0,0 l/m 3,4 km/h (1 Bft) NO 45 12,3 C 14,4 C 3,9 km/h (1 Bft)
17.06.2019 02:34 23,7 C 14,4 C 13,0 C 61 % 87 % 1024,1 hPa 0,0 l/m 3,5 km/h (1 Bft) N-NO 22 12,3 C 14,4 C 3,9 km/h (1 Bft)
17.06.2019 02:32 23,8 C 14,3 C 12,9 C 61 % 87 % 1023,9 hPa 0,0 l/m 3,1 km/h (1 Bft) N-NO 22 12,2 C 14,3 C 4,2 km/h (1 Bft)
17.06.2019 02:30 23,7 C 14,2 C 12,7 C 61 % 86 % 1023,9 hPa 0,0 l/m 2,4 km/h (1 Bft) N-NO 22 11,9 C 14,2 C 5,2 km/h (1 Bft)
17.06.2019 02:28 23,7 C 14,3 C 12,5 C 61 % 86 % 1023,9 hPa 0,0 l/m 2,3 km/h (1 Bft) N-NW 337 12,0 C 14,3 C 3,5 km/h (1 Bft)
17.06.2019 02:26 23,7 C 14,3 C 12,3 C 61 % 86 % 1023,9 hPa 0,0 l/m 2,4 km/h (1 Bft) N 360 12,0 C 14,3 C 4,4 km/h (1 Bft)
17.06.2019 02:24 23,7 C 14,4 C 12,0 C 61 % 85 % 1023,9 hPa 0,0 l/m 2,4 km/h (1 Bft) N-NO 22 11,9 C 14,4 C 4,4 km/h (1 Bft)
17.06.2019 02:22 23,8 C 14,4 C 12,0 C 61 % 85 % 1023,9 hPa 0,0 l/m 2,9 km/h (1 Bft) N 360 11,9 C 14,4 C 0,0 km/h (0 Bft)
17.06.2019 02:20 23,7 C 14,5 C 12,3 C 61 % 85 % 1023,9 hPa 0,0 l/m 4,3 km/h (1 Bft) N-NW 337 12,0 C 14,5 C 4,2 km/h (1 Bft)
17.06.2019 02:18 23,7 C 14,6 C 12,5 C 61 % 85 % 1023,9 hPa 0,0 l/m 4,3 km/h (1 Bft) N-NW 337 12,1 C 14,6 C 4,2 km/h (1 Bft)
17.06.2019 02:16 23,8 C 14,6 C 12,7 C 61 % 84 % 1023,9 hPa 0,0 l/m 4,5 km/h (1 Bft) N-NW 337 11,9 C 14,6 C 4,8 km/h (1 Bft)
17.06.2019 02:14 23,8 C 14,8 C 12,8 C 61 % 84 % 1023,9 hPa 0,0 l/m 4,3 km/h (1 Bft) N-NO 22 12,1 C 14,8 C 5,6 km/h (1 Bft)
17.06.2019 02:12 23,8 C 14,8 C 12,9 C 61 % 84 % 1024,0 hPa 0,0 l/m 3,9 km/h (1 Bft) N-NO 22 12,1 C 14,8 C 5,6 km/h (1 Bft)
17.06.2019 02:10 23,8 C 15,0 C 12,9 C 61 % 84 % 1024,0 hPa 0,0 l/m 3,5 km/h (1 Bft) N-NO 22 12,3 C 15,0 C 6,2 km/h (2 Bft)
17.06.2019 02:08 23,8 C 15,1 C 12,8 C 61 % 84 % 1024,0 hPa 0,0 l/m 3,2 km/h (1 Bft) N-NO 22 12,4 C 15,1 C 7,1 km/h (2 Bft)
17.06.2019 02:06 23,8 C 15,2 C 12,8 C 61 % 84 % 1024,0 hPa 0,0 l/m 3,1 km/h (1 Bft) N-NO 22 12,5 C 15,2 C 5,4 km/h (1 Bft)
17.06.2019 02:04 23,8 C 15,2 C 12,9 C 61 % 83 % 1024,0 hPa 0,0 l/m 3,2 km/h (1 Bft) N 360 12,3 C 15,2 C 4,4 km/h (1 Bft)
17.06.2019 02:02 23,8 C 15,3 C 13,0 C 61 % 83 % 1024,0 hPa 0,0 l/m 3,5 km/h (1 Bft) W-NW 292 12,4 C 15,3 C 2,9 km/h (1 Bft)
17.06.2019 02:00 23,8 C 15,3 C 13,4 C 61 % 84 % 1024,0 hPa 0,0 l/m 4,3 km/h (1 Bft) NW 315 12,6 C 15,3 C 3,9 km/h (1 Bft)
17.06.2019 01:58 23,8 C 15,3 C 13,8 C 61 % 84 % 1024,0 hPa 0,0 l/m 5,0 km/h (1 Bft) NW 315 12,6 C 15,3 C 5,8 km/h (2 Bft)
17.06.2019 01:56 23,8 C 15,4 C 13,8 C 61 % 84 % 1024,0 hPa 0,0 l/m 5,0 km/h (1 Bft) N-NW 337 12,7 C 15,4 C 8,9 km/h (2 Bft)
17.06.2019 01:54 23,8 C 15,5 C 13,9 C 61 % 84 % 1024,0 hPa 0,0 l/m 5,0 km/h (1 Bft) N-NW 337 12,8 C 15,5 C 5,6 km/h (1 Bft)
17.06.2019 01:52 23,8 C 15,5 C 13,8 C 61 % 84 % 1024,2 hPa 0,0 l/m 4,8 km/h (1 Bft) N-NW 337 12,8 C 15,5 C 5,8 km/h (2 Bft)
17.06.2019 01:50 23,8 C 15,4 C 13,8 C 61 % 84 % 1024,2 hPa 0,0 l/m 4,7 km/h (1 Bft) NW 315 12,7 C 15,4 C 7,9 km/h (2 Bft)
17.06.2019 01:48 23,8 C 15,3 C 13,7 C 61 % 84 % 1024,2 hPa 0,0 l/m 4,3 km/h (1 Bft) NW 315 12,6 C 15,3 C 8,9 km/h (2 Bft)
17.06.2019 01:46 23,8 C 15,2 C 13,7 C 61 % 84 % 1024,2 hPa 0,0 l/m 4,2 km/h (1 Bft) NW 315 12,5 C 15,2 C 7,7 km/h (2 Bft)
17.06.2019 01:44 23,8 C 15,2 C 13,7 C 61 % 84 % 1024,2 hPa 0,0 l/m 4,0 km/h (1 Bft) N-NW 337 12,5 C 15,2 C 5,4 km/h (1 Bft)
17.06.2019 01:42 23,8 C 15,3 C 13,8 C 61 % 84 % 1024,2 hPa 0,0 l/m 4,3 km/h (1 Bft) NW 315 12,6 C 15,3 C 3,9 km/h (1 Bft)
17.06.2019 01:40 23,8 C 15,4 C 13,9 C 61 % 84 % 1024,2 hPa 0,0 l/m 4,3 km/h (1 Bft) N-NW 337 12,7 C 15,4 C 6,6 km/h (2 Bft)
17.06.2019 01:38 23,8 C 15,4 C 13,9 C 61 % 84 % 1024,2 hPa 0,0 l/m 4,5 km/h (1 Bft) N-NW 337 12,7 C 15,4 C 7,7 km/h (2 Bft)
17.06.2019 01:36 23,8 C 15,4 C 14,0 C 61 % 84 % 1024,2 hPa 0,0 l/m 4,5 km/h (1 Bft) NW 315 12,7 C 15,4 C 6,2 km/h (2 Bft)
17.06.2019 01:34 23,8 C 15,5 C 14,1 C 61 % 84 % 1024,2 hPa 0,0 l/m 4,2 km/h (1 Bft) N-NW 337 12,8 C 15,5 C 5,2 km/h (1 Bft)
17.06.2019 01:32 23,8 C 15,6 C 14,1 C 61 % 84 % 1024,2 hPa 0,0 l/m 4,2 km/h (1 Bft) NW 315 12,9 C 15,6 C 6,0 km/h (2 Bft)
17.06.2019 01:30 23,8 C 15,5 C 14,1 C 61 % 85 % 1024,2 hPa 0,0 l/m 4,0 km/h (1 Bft) N-NW 337 13,0 C 15,5 C 5,8 km/h (2 Bft)
17.06.2019 01:28 23,8 C 15,3 C 14,1 C 61 % 85 % 1024,2 hPa 0,0 l/m 3,9 km/h (1 Bft) N-NW 337 12,8 C 15,3 C 5,8 km/h (2 Bft)
17.06.2019 01:26 23,8 C 15,3 C 14,1 C 61 % 84 % 1024,2 hPa 0,0 l/m 3,9 km/h (1 Bft) NW 315 12,6 C 15,3 C 6,4 km/h (2 Bft)
17.06.2019 01:24 23,8 C 15,3 C 14,3 C 61 % 84 % 1024,2 hPa 0,0 l/m 3,9 km/h (1 Bft) N-NW 337 12,6 C 15,3 C 4,1 km/h (1 Bft)
17.06.2019 01:22 23,8 C 15,4 C 14,4 C 61 % 84 % 1024,2 hPa 0,0 l/m 4,0 km/h (1 Bft) N-NW 337 12,7 C 15,4 C 5,2 km/h (1 Bft)
17.06.2019 01:20 23,8 C 15,4 C 14,5 C 61 % 84 % 1024,2 hPa 0,0 l/m 4,2 km/h (1 Bft) N-NW 337 12,7 C 15,4 C 5,4 km/h (1 Bft)
17.06.2019 01:18 23,8 C 15,5 C 14,5 C 61 % 84 % 1024,2 hPa 0,0 l/m 4,2 km/h (1 Bft) N-NW 337 12,8 C 15,5 C 4,2 km/h (1 Bft)
17.06.2019 01:16 23,8 C 15,5 C 14,5 C 61 % 83 % 1024,2 hPa 0,0 l/m 4,0 km/h (1 Bft) N 360 12,6 C 15,5 C 5,8 km/h (2 Bft)
17.06.2019 01:14 23,8 C 15,6 C 14,6 C 61 % 83 % 1024,2 hPa 0,0 l/m 3,9 km/h (1 Bft) N 360 12,7 C 15,6 C 5,8 km/h (2 Bft)
17.06.2019 01:12 23,8 C 15,6 C 14,6 C 61 % 83 % 1024,8 hPa 0,0 l/m 4,0 km/h (1 Bft) N-NW 337 12,7 C 15,6 C 5,0 km/h (1 Bft)
17.06.2019 01:10 23,8 C 15,6 C 14,5 C 61 % 83 % 1024,8 hPa 0,0 l/m 3,7 km/h (1 Bft) N 360 12,7 C 15,6 C 5,6 km/h (1 Bft)
17.06.2019 01:08 23,8 C 15,5 C 14,5 C 61 % 83 % 1024,8 hPa 0,0 l/m 3,1 km/h (1 Bft) N-NW 337 12,6 C 15,5 C 4,4 km/h (1 Bft)
17.06.2019 01:06 23,8 C 15,5 C 14,4 C 61 % 83 % 1024,8 hPa 0,0 l/m 2,9 km/h (1 Bft) N-NW 337 12,6 C 15,5 C 3,9 km/h (1 Bft)
17.06.2019 01:04 23,8 C 15,6 C 14,3 C 61 % 83 % 1024,8 hPa 0,0 l/m 2,3 km/h (1 Bft) N-NW 337 12,7 C 15,6 C 4,8 km/h (1 Bft)
17.06.2019 01:02 23,8 C 15,5 C 14,2 C 61 % 83 % 1024,8 hPa 0,0 l/m 2,1 km/h (1 Bft) N-NW 337 12,6 C 15,5 C 5,4 km/h (1 Bft)
17.06.2019 01:00 23,8 C 15,5 C 14,0 C 61 % 83 % 1024,8 hPa 0,0 l/m 1,9 km/h (1 Bft) NW 315 12,6 C 15,5 C 3,9 km/h (1 Bft)
17.06.2019 00:58 23,8 C 15,5 C 14,0 C 61 % 83 % 1024,8 hPa 0,0 l/m 2,3 km/h (1 Bft) NW 315 12,6 C 15,5 C 2,9 km/h (1 Bft)
17.06.2019 00:56 23,9 C 15,5 C 14,1 C 61 % 83 % 1024,8 hPa 0,0 l/m 2,6 km/h (1 Bft) N-NW 337 12,6 C 15,5 C 2,1 km/h (1 Bft)
17.06.2019 00:54 23,8 C 15,6 C 14,2 C 61 % 83 % 1024,8 hPa 0,0 l/m 3,2 km/h (1 Bft) NW 315 12,7 C 15,6 C 0,0 km/h (0 Bft)
17.06.2019 00:52 23,8 C 15,6 C 14,4 C 61 % 83 % 1025,0 hPa 0,0 l/m 3,5 km/h (1 Bft) NW 315 12,7 C 15,6 C 4,4 km/h (1 Bft)
17.06.2019 00:50 23,8 C 15,6 C 14,3 C 61 % 83 % 1025,0 hPa 0,0 l/m 3,5 km/h (1 Bft) N-NW 337 12,7 C 15,6 C 5,2 km/h (1 Bft)
17.06.2019 00:48 23,8 C 15,6 C 14,3 C 61 % 82 % 1025,0 hPa 0,0 l/m 3,4 km/h (1 Bft) N-NW 337 12,5 C 15,6 C 5,8 km/h (2 Bft)
17.06.2019 00:46 23,8 C 15,6 C 14,2 C 61 % 82 % 1025,0 hPa 0,0 l/m 2,9 km/h (1 Bft) NW 315 12,5 C 15,6 C 4,1 km/h (1 Bft)
17.06.2019 00:44 23,8 C 15,8 C 14,1 C 61 % 82 % 1025,0 hPa 0,0 l/m 3,1 km/h (1 Bft) NW 315 12,7 C 15,8 C 4,2 km/h (1 Bft)
17.06.2019 00:42 23,8 C 15,9 C 13,9 C 61 % 82 % 1025,0 hPa 0,0 l/m 3,2 km/h (1 Bft) NW 315 12,8 C 15,9 C 2,5 km/h (1 Bft)
17.06.2019 00:40 23,8 C 15,9 C 13,8 C 61 % 82 % 1025,0 hPa 0,0 l/m 3,2 km/h (1 Bft) W 270 12,8 C 15,9 C 3,3 km/h (1 Bft)
17.06.2019 00:38 23,9 C 15,9 C 13,8 C 61 % 82 % 1025,0 hPa 0,0 l/m 2,9 km/h (1 Bft) NW 315 12,8 C 15,9 C 5,0 km/h (1 Bft)
17.06.2019 00:36 23,9 C 15,9 C 13,8 C 61 % 82 % 1025,0 hPa 0,0 l/m 2,6 km/h (1 Bft) W-NW 292 12,8 C 15,9 C 7,5 km/h (2 Bft)
17.06.2019 00:34 23,9 C 15,8 C 13,7 C 61 % 82 % 1025,0 hPa 0,0 l/m 2,3 km/h (1 Bft) W-NW 292 12,7 C 15,8 C 4,1 km/h (1 Bft)
17.06.2019 00:32 23,9 C 15,6 C 13,5 C 61 % 82 % 1025,1 hPa 0,0 l/m 1,4 km/h (1 Bft) W-NW 292 12,5 C 15,6 C 4,4 km/h (1 Bft)
17.06.2019 00:30 23,8 C 15,3 C 13,5 C 61 % 82 % 1025,1 hPa 0,0 l/m 0,8 km/h (0 Bft) W 270 12,2 C 15,3 C 2,7 km/h (1 Bft)
17.06.2019 00:28 23,9 C 15,3 C 13,6 C 61 % 82 % 1025,1 hPa 0,0 l/m 0,8 km/h (0 Bft) W-NW 292 12,2 C 15,3 C 2,5 km/h (1 Bft)
17.06.2019 00:26 23,9 C 15,3 C 13,7 C 61 % 82 % 1025,1 hPa 0,0 l/m 0,8 km/h (0 Bft) W-NW 292 12,2 C 15,3 C 3,9 km/h (1 Bft)
17.06.2019 00:24 23,9 C 15,4 C 13,9 C 61 % 82 % 1025,1 hPa 0,0 l/m 1,0 km/h (0 Bft) W 270 12,3 C 15,4 C 0,0 km/h (0 Bft)
17.06.2019 00:22 23,9 C 15,5 C 14,0 C 61 % 82 % 1025,1 hPa 0,0 l/m 1,0 km/h (0 Bft) W 270 12,4 C 15,5 C 0,0 km/h (0 Bft)
17.06.2019 00:20 23,9 C 15,6 C 13,9 C 61 % 82 % 1025,1 hPa 0,0 l/m 1,1 km/h (1 Bft) NW 315 12,5 C 15,6 C 2,1 km/h (1 Bft)
17.06.2019 00:18 23,9 C 15,5 C 13,8 C 61 % 82 % 1025,1 hPa 0,0 l/m 1,1 km/h (1 Bft) NW 315 12,4 C 15,5 C 3,5 km/h (1 Bft)
17.06.2019 00:16 23,9 C 15,6 C 13,7 C 61 % 82 % 1025,1 hPa 0,0 l/m 1,0 km/h (0 Bft) N-NW 337 12,5 C 15,6 C 2,3 km/h (1 Bft)
17.06.2019 00:14 23,9 C 15,7 C 13,6 C 61 % 81 % 1025,1 hPa 0,0 l/m 0,6 km/h (0 Bft) N-NO 22 12,4 C 15,7 C 0,0 km/h (0 Bft)
17.06.2019 00:12 23,9 C 15,7 C 14,2 C 61 % 79 % 1025,0 hPa 0,0 l/m 0,2 km/h (0 Bft) W 270 12,1 C 15,7 C 0,0 km/h (0 Bft)
17.06.2019 00:10 23,9 C 15,7 C 14,2 C 61 % 79 % 1025,0 hPa 0,0 l/m 0,2 km/h (0 Bft) W 270 12,1 C 15,7 C 0,0 km/h (0 Bft)
17.06.2019 00:08 23,9 C 15,7 C 14,2 C 61 % 79 % 1025,0 hPa 0,0 l/m 0,2 km/h (0 Bft) W 270 12,1 C 15,7 C 0,0 km/h (0 Bft)
17.06.2019 00:06 23,9 C 15,7 C 14,2 C 61 % 79 % 1025,0 hPa 0,0 l/m 0,2 km/h (0 Bft) W 270 12,1 C 15,7 C 0,0 km/h (0 Bft)
17.06.2019 00:04 23,9 C 15,7 C 14,2 C 61 % 79 % 1025,0 hPa 0,0 l/m 0,2 km/h (0 Bft) W 270 12,1 C 15,7 C 0,0 km/h (0 Bft)
17.06.2019 00:02 23,9 C 15,8 C 14,2 C 61 % 79 % 1025,0 hPa 0,0 l/m 0,2 km/h (0 Bft) W 270 12,2 C 15,8 C 0,0 km/h (0 Bft)
17.06.2019 00:00 23,9 C 15,8 C 14,4 C 61 % 79 % 1025,0 hPa 0,0 l/m 0,2 km/h (0 Bft) W 270 12,2 C 15,8 C 0,0 km/h (0 Bft)
_ Min-Zeit 03:50 04:38 04:20 11:18 11:30 19:34 - 03:18 - - 11:46 04:38 00:00
Minimum _ 23,6 C 13,3 C 11,3 C 57 % 47 % 1021,8 hPa - 0,0 km/h (0 Bft) - - 9,4 C 13,3 C 0,0 km/h (0 Bft)
_ Max-Zeit 11:56 14:18 13:10 00:00 04:06 10:34 00:00 14:14 - - 16:26 14:18 15:16
Maximum _ 26,2 C 23,9 C 40,2 C 61 % 89 % 1025,2 hPa 0,0 l/m 13,4 km/h
O-SO (3 Bft)
- - 14,5 C 23,9 C 40,2 km/h
O (6 Bft)
Durchschnitt _ 24,7 C 18,9 C 23,5 C 59 % 68 % 1024,1 hPa #0,0 l/m 5,7 km/h (1 Bft) N-NO - 12,4 C 18,9 C 8,4 km/h (2 Bft)